                ,  0.675,  0.775,  0.875,  0.975,  1.075,  1.175,  1.275,  1.375,  1.475,  1.575,  1.675,  1.775,  1.875,  1.975,  2.075,  2.175,  2.275,  2.375,  2.475,  2.575,  2.675,  2.775,  2.875,  2.975,  3.075,  3.175,  3.275,  3.375,  3.475,  3.575,  3.675,  3.775,  3.875,  3.975,  4.075,  4.175,  4.275,  4.375,  4.475,  4.575,  4.675,  4.775,  4.875,  4.975,  5.075,  5.175,  5.275,  5.375,  5.475,  5.575,  5.675,  5.775,  5.875,  5.975,  6.075,  6.175,  6.275,  6.375,  6.475,  6.575,  6.675,  6.775,  6.875,  6.975,  7.075,  7.175,  7.275,  7.375,  7.475,  7.575
2003/07/08 00:00,   -0.1,   -0.4,   -0.0,   -0.0,    0.2,   -0.2,   -0.0,    0.2,    0.1,    0.1,    0.2,    0.2,    0.3,   -0.2,    0.2,    0.2,    0.2,    0.1,    0.0,    0.0,    0.1,   -0.2,    0.1,   -0.1,   -0.0,    0.0,    0.1,    0.0,   -0.0,   -0.2,   -0.0,    0.0,   -0.3,    0.1,  999.0,   -0.1,    0.4,    0.1,    0.1,    0.0,   -0.1,    0.1,   -0.0,   -0.4,   -0.3,   -0.9,  999.0,    0.1,   -0.1,    0.0,    0.2,  999.0,   -0.2,   -0.4,    0.2,    0.4,    0.4,    0.4,   -0.2,   -0.2,   -0.1,    0.3,  999.0,  999.0,  999.0,  999.0,  999.0,   -0.4,  999.0,  999.0
2003/07/08 00:10,   -0.1,    0.1,    0.0,    0.1,    0.0,    0.0,    0.1,    0.0,    0.1,    0.1,    0.3,    0.4,    0.1,    0.1,    0.1,    0.1,    0.1,    0.3,    0.2,    0.2,  999.0,  999.0,    0.2,    0.2,    0.1,    0.1,    0.1,    0.1,    0.1,    0.2,    0.3,  999.0,  999.0,  999.0,  999.0,  999.0,  999.0,    0.3,  999.0,  999.0,  999.0,    0.3,    0.3,    0.4,    0.5,    0.3,    0.3,    0.4,    0.4,    0.4,  999.0,  999.0,    0.2,  999.0,    0.1,  999.0,  999.0,    0.0,    0.3,  999.0,  999.0,    0.4,  999.0,  999.0,  999.0,  999.0,  999.0,  999.0,  999.0,  999.0
2003/07/08 00:20,   -0.2,   -0.2,    0.0,    0.1,    0.1,    0.1,    0.0,    0.1,    0.1,    0.1,    0.1,    0.1,   -0.0,    0.0,    0.1,    0.1,    0.0,  999.0,    0.2,    0.3,    0.3,    0.1,    0.1,    0.1,    0.3,    0.1,    0.0,    0.2,    0.2,    0.0,    0.1,    0.1,  999.0,  999.0,    0.2,  999.0,  999.0,  999.0,  999.0,  999.0,  999.0,    0.2,  999.0,  999.0,    0.1,  999.0,  999.0,    0.3,  999.0,  999.0,    0.3,    0.3,    0.3,  999.0,    0.5,    0.3,  999.0,    0.3,    0.5,    0.4,  999.0,  999.0,  999.0,  999.0,  999.0,  999.0,  999.0,  999.0,  999.0,  999.0
2003/07/08 00:30,    0.1,    0.0,    0.1,    0.1,    0.4,    0.1,    0.2,    0.1,    0.1,    0.1,    0.1,    0.0,   -0.1,    0.0,    0.0,  999.0,    0.1,    0.1,    0.4,    0.2,    0.1,    0.1,    0.1,    0.1,    0.0,    0.1,    0.2,    0.1,    0.2,    0.3,    0.3,    0.3,    0.1,    0.1,    0.2,    0.3,    0.2,    0.2,  999.0,  999.0,    0.6,  999.0,  999.0,   -0.1,  999.0,  999.0,  999.0,    0.1,  999.0,  999.0,    0.2,    0.2,  999.0,  999.0,    0.4,  999.0,  999.0,  999.0,    0.3,  999.0,  999.0,  999.0,  999.0,  999.0,  999.0,  999.0,  999.0,  999.0,  999.0,  999.0
2003/07/08 00:40,    0.0,   -0.0,   -0.2,    0.1,    0.1,    0.1,    0.2,    0.2,    0.1,    0.2,    0.1,    0.1,    0.1,    0.1,    0.0,   -0.0,    0.1,    0.0,   -0.1,    0.0,   -0.0,    0.2,    0.1,    0.0,    0.0,    0.0,    0.2,    0.2,    0.2,    0.4,    0.2,    0.3,    0.3,  999.0,    0.3,  999.0,  999.0,  999.0,    0.2,  999.0,  999.0,  999.0,  999.0,  999.0,    0.2,    0.5,  999.0,  999.0,  999.0,  999.0,    0.4,    0.5,    0.3,    0.5,    0.6,  999.0,  999.0,  999.0,  999.0,  999.0,  999.0,    0.5,   -0.5,   -0.5,   -0.4,   -0.4,   -0.4,   -0.4,   -0.4,   -0.1
2003/07/08 00:50,   -0.1,   -0.4,   -0.3,   -0.0,    0.0,    0.0,    0.1,    0.0,   -0.0,   -0.0,    0.0,    0.1,    0.0,   -0.0,    0.2,    0.2,    0.1,    0.1,    0.1,    0.1,    0.1,    0.1,    0.1,    0.1,  999.0,    0.1,   -0.3,    0.1,    0.1,    0.3,    0.3,    0.1,  999.0,  999.0,  999.0,  999.0,  999.0,  999.0,  999.0,  999.0,  999.0,  999.0,  999.0,    0.4,    0.3,  999.0,  999.0,  999.0,  999.0,  999.0,  999.0,  999.0,  999.0,    0.3,  999.0,  999.0,  999.0,  999.0,  999.0,  999.0,  999.0,  999.0,   -0.4,   -0.2,   -0.3,   -0.6,   -0.4,   -0.6,   -0.6,  999.0
2003/07/08 01:00,   -0.3,   -0.1,    0.1,   -0.1,    0.0,    0.0,   -0.0,   -0.0,   -0.1,   -0.1,    0.0,   -0.0,    0.1,    0.2,    0.0,   -0.1,    0.1,    0.1,    0.1,    0.2,    0.2,    0.2,    0.2,    0.2,    0.3,    0.4,    0.2,    0.2,    0.1,    0.2,    0.2,    0.3,    0.2,    0.3,  999.0,  999.0,  999.0,  999.0,  999.0,  999.0,  999.0,  999.0,  999.0,    0.5,  999.0,  999.0,  999.0,  999.0,  999.0,  999.0,  999.0,  999.0,  999.0,    0.4,  999.0,  999.0,  999.0,  999.0,  999.0,   -0.2,   -0.5,   -0.6,   -0.6,   -0.5,   -0.5,   -0.6,   -0.6,   -0.4,   -0.3,   -0.3
2003/07/08 01:10,   -0.2,   -0.3,    0.0,    0.1,    0.1,    0.2,    0.4,    0.2,   -0.1,    0.1,    0.1,    0.1,   -0.1,    0.0,    0.2,   -0.0,   -0.1,    0.0,    0.2,   -0.2,    0.0,    0.2,    0.1,    0.2,    0.2,    0.1,    0.2,    0.1,    0.2,    0.1,    0.1,    0.1,    0.2,  999.0,    0.0,    0.2,  999.0,  999.0,  999.0,  999.0,  999.0,  999.0,  999.0,  999.0,    0.4,  999.0,  999.0,  999.0,  999.0,  999.0,  999.0,  999.0,  999.0,  999.0,  999.0,  999.0,  999.0,   -0.6,   -0.5,   -0.7,   -0.7,   -0.7,   -0.8,   -0.7,   -0.7,   -0.5,   -0.4,   -0.6,   -0.4,   -0.3
2003/07/08 01:20,    0.0,   -0.1,   -0.0,    0.1,    0.1,    0.2,    0.3,    0.2,    0.2,    0.2,    0.2,    0.2,    0.3,    0.1,    0.1,    0.1,   -0.0,    0.1,    0.2,    0.2,    0.3,    0.3,    0.3,    0.3,    0.2,    0.1,    0.2,    0.1,    0.3,    0.2,  999.0,    0.3,    0.3,    0.3,    0.3,    0.3,    0.6,  999.0,  999.0,  999.0,  999.0,    0.2,  999.0,  999.0,  999.0,  999.0,  999.0,  999.0,  999.0,   -0.6,  999.0,  999.0,  999.0,  999.0,  999.0,   -0.2,   -0.5,   -0.7,   -0.6,   -0.6,   -0.7,   -0.7,   -0.6,   -0.6,   -0.5,   -0.5,   -0.5,   -0.4,   -0.2,   -0.1
2003/07/08 01:30,   -0.1,   -0.2,   -0.4,   -0.2,   -0.1,    0.0,   -0.0,   -0.1,   -0.0,   -0.1,   -0.1,    0.0,   -0.1,   -0.4,   -0.1,    0.0,    0.1,    0.2,    0.3,    0.0,    0.1,    0.1,    0.2,    0.2,    0.1,    0.1,    0.2,    0.2,    0.1,    0.1,    0.1,    0.2,    0.2,    0.2,    0.2,    0.0,    0.1,   -0.1,  999.0,  999.0,  999.0,  999.0,  999.0,  999.0,  999.0,  999.0,  999.0,  999.0,  999.0,    0.2,  999.0,  999.0,  999.0,  999.0,  999.0,  999.0,   -0.2,   -0.4,   -0.6,   -0.6,   -0.7,   -0.6,   -0.7,   -0.6,   -0.6,   -0.7,   -0.6,   -0.6,   -0.5,   -0.4
2003/07/08 01:40,   -0.0,   -0.2,   -0.2,   -0.1,   -0.1,   -0.0,    0.0,    0.1,   -0.1,   -0.0,   -0.0,   -0.0,    0.0,   -0.2,    0.1,    0.1,    0.6,    0.1,  999.0,    0.1,    0.0,    0.2,    0.1,    0.1,    0.1,    0.2,    0.1,    0.1,   -0.0,    0.4,  999.0,   -0.0,   -0.0,    0.0,    0.1,    0.1,    0.1,  999.0,  999.0,  999.0,   -0.2,    0.1,  999.0,  999.0,  999.0,  999.0,  999.0,  999.0,  999.0,  999.0,  999.0,  999.0,  999.0,  999.0,    0.1,   -0.1,   -1.0,   -0.7,   -0.9,   -0.8,   -0.8,   -0.7,   -0.7,   -0.7,   -0.6,   -0.6,   -0.4,   -0.3,   -0.2,   -0.1
2003/07/08 01:50,   -0.0,    0.0,   -0.1,   -0.0,    0.0,    0.0,    0.0,   -0.2,   -0.0,   -0.1,   -0.0,   -0.3,   -0.4,   -0.2,    0.0,   -0.0,    0.2,    0.0,    0.2,    0.4,    0.1,    0.1,    0.2,    0.1,    0.0,    0.1,    0.0,    0.1,    0.5,    0.1,  999.0,    0.3,    0.1,    0.2,    0.2,    0.3,    0.2,  999.0,  999.0,    0.1,    0.3,    0.3,  999.0,    0.1,  999.0,  999.0,  999.0,  999.0,  999.0,    0.2,    0.3,  999.0,  999.0,  999.0,  999.0,  999.0,   -0.2,   -0.4,   -0.3,   -0.7,   -0.7,   -0.7,   -0.6,   -0.6,   -0.7,   -0.2,   -0.0,   -0.2,  999.0,  999.0
2003/07/08 02:00,   -0.1,   -0.1,    0.2,    0.1,    0.0,    0.1,   -0.1,    0.0,    0.0,   -0.0,   -0.1,    0.1,    0.1,    0.1,    0.1,   -0.2,   -0.0,    0.5,    0.2,   -0.8,    0.1,    0.3,    0.0,    0.5,    0.6,  999.0,    0.3,    0.2,    0.1,    0.5,  999.0,    0.5,    0.3,    0.4,    0.2,    0.1,    0.3,    0.1,  999.0,    0.4,    0.2,    0.1,    0.2,  999.0,  999.0,  999.0,  999.0,    0.3,    0.1,    0.2,    0.2,    0.4,  999.0,  999.0,  999.0,  999.0,    0.0,   -0.0,   -0.0,  999.0,  999.0,  999.0,  999.0,   -0.4,  999.0,   -0.1,  999.0,  999.0,   -0.2,   -0.4
2003/07/08 02:10,   -0.2,   -0.1,    0.0,   -0.0,    0.1,    0.2,    0.0,    0.2,    0.1,    0.1,    0.0,    0.2,    0.2,    0.1,    0.3,    0.4,    0.3,    0.3,    0.3,    0.3,    0.1,    0.4,    0.6,    0.3,    0.1,    0.1,    0.1,    0.2,    0.2,    0.2,    0.1,   -0.0,    0.5,  999.0,    0.2,    0.2,   -0.1,    0.2,    0.3,    0.2,    0.2,    0.1,  999.0,  999.0,  999.0,  999.0,  999.0,  999.0,  999.0,  999.0,  999.0,  999.0,  999.0,  999.0,  999.0,  999.0,    0.0,    0.1,   -1.0,   -0.7,   -0.8,   -0.8,   -0.8,   -0.8,   -0.8,   -0.8,   -0.7,   -0.6,   -0.5,   -0.5
2003/07/08 02:20,   -0.2,    0.3,    0.2,    0.1,   -0.1,    0.1,    0.1,    0.1,   -0.1,   -0.3,   -0.1,   -0.1,   -0.1,   -0.1,    0.3,    0.3,    0.1,    0.2,    0.1,    0.1,   -0.1,    0.1,   -0.0,    0.3,    0.1,  999.0,    0.0,    0.1,    0.0,    0.1,   -0.1,    0.4,    0.1,    0.1,    0.2,    0.2,    0.2,    0.1,  999.0,  999.0,  999.0,  999.0,  999.0,    0.0,    0.1,    0.3,  999.0,  999.0,  999.0,  999.0,  999.0,  999.0,   -0.5,   -1.0,   -1.2,   -1.1,   -1.0,   -0.9,   -1.0,   -1.0,   -0.9,   -0.9,   -0.8,   -0.8,   -0.8,   -0.8,   -0.7,   -0.7,   -0.8,   -0.8
2003/07/08 02:30,    0.1,    0.1,    0.0,    0.0,    0.1,    0.1,    0.1,   -0.4,    0.1,   -0.1,   -0.3,   -0.1,   -0.1,   -0.2,   -0.7,   -0.5,   -0.3,   -0.1,   -0.2,    0.6,    0.4,    0.0,   -0.0,    0.2,    0.0,    0.1,   -0.0,    0.1,    0.1,    0.1,  999.0,    0.2,    0.0,    0.2,    0.5,    0.2,    0.1,    0.2,   -0.9,   -0.9,   -1.1,   -1.0,   -1.2,   -1.2,   -1.1,   -1.1,   -0.8,   -0.8,   -0.6,   -0.9,   -1.0,   -1.0,   -1.0,   -1.0,   -1.0,   -1.0,   -1.0,   -0.9,   -0.9,   -0.9,   -1.0,   -0.9,   -0.9,   -0.8,   -0.8,   -0.8,   -0.8,   -0.8,   -0.8,   -0.8
2003/07/08 02:40,   -1.2,   -1.0,   -1.0,   -0.9,   -1.0,   -0.9,   -0.9,   -0.9,   -0.9,   -1.0,   -1.5,   -1.3,   -1.2,   -2.1,   -1.1,   -1.1,   -1.2,   -1.1,   -1.1,   -1.3,   -2.0,   -1.8,   -2.0,   -2.5,   -2.1,   -1.9,   -1.8,   -1.9,   -2.0,   -4.2,   -4.5,   -2.1,   -2.1,   -1.7,   -2.6,   -2.1,   -2.1,   -2.1,   -2.1,   -1.9,   -1.8,   -1.7,   -1.7,   -1.5,   -1.3,   -1.2,   -1.2,   -1.1,   -1.1,   -1.0,   -1.1,   -1.1,   -1.0,   -1.0,   -0.9,   -0.9,   -0.9,   -0.9,   -0.9,   -0.9,   -0.9,   -0.9,   -0.9,   -0.9,   -0.8,   -0.8,   -0.7,   -0.7,   -0.7,   -0.8
2003/07/08 02:50,   -4.2,   -4.1,   -4.1,   -4.2,   -4.2,   -4.2,   -4.3,   -4.2,   -4.3,   -4.3,   -4.3,   -4.3,   -4.3,   -4.3,   -4.3,   -4.4,   -4.5,   -4.5,   -4.5,   -4.5,   -4.5,   -4.6,   -4.6,   -4.6,   -4.6,   -4.7,   -4.6,   -4.7,   -4.6,   -4.7,   -4.7,   -4.6,   -4.2,   -4.0,   -4.3,   -4.3,   -4.1,   -3.5,   -2.8,   -2.2,   -1.7,   -1.6,   -1.5,   -1.4,   -1.3,   -1.2,   -1.0,   -1.1,   -1.1,   -1.1,   -1.1,   -1.0,   -1.1,   -1.0,   -1.1,   -1.0,   -1.0,   -1.0,   -1.0,   -1.0,   -1.0,   -1.0,   -1.0,   -1.0,   -1.0,   -1.0,   -1.0,   -0.9,   -0.9,   -0.9
2003/07/08 03:00,   -4.8,   -4.8,   -4.8,   -4.8,   -4.9,   -5.0,   -5.0,   -5.0,   -5.1,   -5.1,   -5.1,   -5.1,   -5.1,   -5.2,   -5.2,   -5.3,   -5.3,   -5.4,   -5.4,   -5.4,   -5.3,   -5.4,   -5.4,   -5.6,   -5.6,   -5.6,   -5.6,   -5.6,   -5.6,   -5.6,   -5.5,   -5.4,   -5.3,   -5.2,   -5.1,   -4.8,   -4.0,   -3.2,   -2.4,   -2.1,   -1.7,   -1.5,   -1.5,   -1.4,   -1.3,   -1.2,   -1.1,   -1.1,   -1.1,   -1.1,   -1.1,   -1.0,   -1.0,   -1.0,   -1.0,   -1.0,   -1.0,   -1.0,   -1.0,   -1.0,   -1.0,   -0.9,   -0.9,   -0.9,   -0.8,   -0.8,   -0.7,   -0.7,   -0.7,   -0.7
2003/07/08 03:10,   -4.9,   -4.9,   -4.8,   -4.9,   -4.9,   -5.0,   -5.1,   -5.0,   -5.0,   -5.0,   -5.1,   -5.1,   -5.1,   -5.2,   -5.2,   -5.3,   -5.3,   -5.3,   -5.4,   -5.3,   -5.3,   -5.3,   -5.3,   -5.3,   -5.2,   -5.2,   -5.2,   -5.2,   -5.2,   -5.2,   -5.4,   -5.4,   -5.4,   -5.4,   -5.4,   -5.1,   -4.3,   -3.1,   -2.3,   -1.8,   -1.6,   -1.5,   -1.3,   -1.3,   -1.3,   -1.2,   -1.2,   -1.2,   -1.2,   -1.2,   -1.1,   -1.1,   -1.0,   -1.0,   -0.9,   -0.9,   -0.9,   -0.8,   -0.8,   -0.8,   -0.8,   -0.8,   -0.7,   -0.7,   -0.6,   -0.6,   -0.4,   -0.5,   -0.4,   -0.5
2003/07/08 03:20,   -4.7,   -4.6,   -4.6,   -4.6,   -4.7,   -4.7,   -4.7,   -4.7,   -4.7,   -4.7,   -4.7,   -4.7,   -4.7,   -4.7,   -4.7,   -4.8,   -4.8,   -4.8,   -4.8,   -4.8,   -4.8,   -4.8,   -4.8,   -4.8,   -4.7,   -4.7,   -4.7,   -4.7,   -4.7,   -4.7,   -4.7,   -4.7,   -4.6,   -4.6,   -4.6,   -4.5,   -4.3,   -3.8,   -3.1,   -2.4,   -1.9,   -1.4,   -1.4,   -1.3,   -1.4,   -1.3,   -1.2,   -1.2,   -1.2,   -1.2,   -1.1,   -1.1,   -1.0,   -1.0,   -0.9,   -0.9,   -0.9,   -0.9,   -0.8,   -0.8,   -0.7,   -0.7,   -0.7,   -0.7,   -0.7,   -0.7,   -0.7,   -0.7,   -0.7,   -0.7
2003/07/08 03:30,   -4.2,   -4.1,   -4.0,   -4.0,   -4.2,   -4.3,   -4.3,   -4.3,   -4.2,   -4.2,   -4.3,   -4.3,   -4.2,   -4.3,   -4.3,   -4.3,   -4.3,   -4.3,   -4.3,   -4.2,   -4.3,   -4.2,   -4.2,   -4.2,   -4.3,   -4.3,   -4.3,   -4.3,   -4.2,   -4.3,   -4.2,   -4.1,   -4.1,   -4.1,   -4.1,   -4.1,   -4.2,   -4.0,   -3.2,   -2.3,   -1.7,   -1.3,   -1.3,   -1.3,   -1.3,   -1.3,   -1.3,   -1.3,   -1.2,   -1.2,   -1.1,   -1.0,   -1.0,   -0.9,   -0.8,   -0.9,   -0.9,   -1.0,   -0.9,   -0.9,   -0.8,   -0.9,   -0.9,   -0.9,   -0.8,   -0.9,   -0.9,   -0.9,   -0.8,   -0.9
2003/07/08 03:40,   -4.6,   -4.6,   -4.5,   -4.6,   -4.7,   -4.6,   -4.7,   -4.8,   -4.8,   -4.8,   -4.8,   -4.9,   -4.8,   -4.9,   -4.8,   -4.9,   -4.8,   -4.8,   -4.8,   -4.9,   -4.8,   -4.8,   -4.8,   -4.7,   -4.8,   -4.8,   -4.8,   -4.8,   -4.8,   -4.8,   -4.8,   -4.7,   -4.8,   -4.8,   -4.8,   -4.9,   -4.8,   -4.5,   -3.4,  999.0,   -1.6,   -1.3,   -1.3,   -1.3,   -1.3,   -1.2,   -1.2,   -1.2,   -1.2,   -1.2,   -1.1,   -1.1,   -1.1,   -1.1,   -1.0,   -1.0,   -1.0,   -1.0,   -0.9,   -1.0,   -0.9,   -0.9,   -0.9,   -0.9,   -0.8,   -0.8,   -0.8,   -0.8,   -0.8,   -0.7
2003/07/08 03:50,   -4.5,   -4.6,   -4.6,   -4.6,   -4.6,   -4.6,   -4.6,   -4.7,   -4.7,   -4.7,   -4.7,   -4.7,   -4.7,   -4.7,   -4.7,   -4.8,   -4.9,   -4.8,   -4.8,   -4.8,   -4.7,   -4.8,   -4.8,   -4.8,   -4.8,   -4.8,   -4.7,   -4.7,   -4.8,   -4.8,   -4.9,   -4.8,   -4.8,   -4.8,   -4.9,   -4.9,   -4.9,   -4.3,  999.0,   -1.8,   -1.4,   -1.4,   -1.4,   -1.3,   -1.3,   -1.3,   -1.2,   -1.3,   -1.2,   -1.2,   -1.2,   -1.1,   -1.1,   -1.0,   -1.1,   -1.1,   -1.1,   -1.0,   -1.0,   -1.0,   -0.9,   -0.9,   -0.9,   -0.8,   -0.9,   -0.9,   -0.8,   -0.7,   -0.7,   -0.7
2003/07/08 04:00,   -3.4,   -3.4,   -4.2,   -4.3,   -3.9,   -3.9,   -3.8,   -3.5,   -3.1,   -3.1,   -3.5,   -3.4,   -3.4,   -3.4,   -3.5,   -4.5,   -4.4,   -4.4,   -4.1,   -4.5,   -4.5,   -4.5,   -4.2,   -3.5,   -3.7,   -3.8,   -3.7,   -3.6,   -3.5,   -3.5,   -3.5,   -3.4,   -3.5,   -3.4,   -3.4,   -3.4,   -3.3,   -3.0,   -2.2,   -1.5,   -1.1,   -1.0,   -0.8,   -0.8,   -0.8,   -0.9,   -0.8,   -0.9,   -0.8,   -0.9,   -0.9,   -0.9,   -1.0,   -0.9,   -0.9,   -0.7,   -0.8,   -0.8,   -0.7,   -0.7,   -0.8,   -0.8,   -0.7,   -0.7,   -0.7,   -0.6,   -0.7,   -0.6,   -0.5,   -0.5
2003/07/08 04:10,   -3.0,   -2.7,   -3.3,   -2.1,   -3.1,   -3.1,   -3.0,   -2.0,   -1.3,   -1.6,   -1.2,   -1.2,   -1.3,   -1.5,   -1.4,   -1.4,   -1.2,   -0.9,   -0.6,   -0.2,   -0.4,   -0.4,   -0.2,   -0.6,   -1.0,   -1.2,   -1.5,   -1.3,   -1.4,   -1.4,   -1.4,   -1.1,   -1.1,   -1.0,   -1.1,   -0.8,   -1.0,   -0.6,   -1.0,  999.0,   -0.7,  999.0,  999.0,  999.0,  999.0,   -0.2,   -0.5,   -0.7,   -0.8,   -0.5,   -0.6,   -0.6,   -0.8,   -0.7,   -0.7,   -0.5,   -0.6,   -0.6,  999.0,  999.0,  999.0,  999.0,  999.0,  999.0,   -0.5,  999.0,  999.0,  999.0,  999.0,  999.0
2003/07/08 04:20,   -1.9,   -1.8,   -1.5,   -1.1,   -1.2,   -1.1,   -1.1,   -0.9,   -0.9,   -0.9,   -0.7,   -0.8,   -0.2,   -0.2,   -0.2,   -0.4,   -0.4,   -0.5,   -0.1,   -0.0,    0.2,   -0.1,   -0.3,   -0.5,   -0.8,   -0.7,   -0.8,   -1.0,   -1.4,   -1.3,   -1.3,   -1.2,   -1.2,   -1.2,   -1.0,   -0.9,   -0.9,   -0.9,   -0.8,   -0.6,   -0.3,    0.1,    0.3,  999.0,  999.0,  999.0,  999.0,  999.0,  999.0,  999.0,  999.0,  999.0,  999.0,  999.0,  999.0,  999.0,  999.0,  999.0,  999.0,  999.0,  999.0,  999.0,  999.0,  999.0,  999.0,  999.0,  999.0,  999.0,  999.0,  999.0
2003/07/08 04:30,   -0.2,   -0.2,   -0.0,    0.1,   -0.1,    0.0,   -0.8,   -0.7,   -0.8,   -0.5,   -0.3,   -0.5,   -0.6,   -0.7,   -0.9,   -0.6,   -0.4,   -0.9,   -0.9,   -1.0,   -1.1,   -1.0,   -0.9,   -1.0,   -1.2,   -1.3,   -1.6,   -1.5,   -1.6,   -1.9,   -1.9,   -1.7,   -1.4,   -1.7,   -1.6,   -1.4,   -1.5,   -1.4,   -1.5,   -0.9,   -0.7,   -0.5,   -0.2,   -0.1,  999.0,   -0.2,  999.0,  999.0,  999.0,  999.0,  999.0,  999.0,  999.0,  999.0,  999.0,  999.0,  999.0,  999.0,  999.0,  999.0,  999.0,  999.0,  999.0,  999.0,  999.0,  999.0,  999.0,   -0.7,   -0.8,   -0.7
2003/07/08 04:40,   -5.3,   -5.3,   -5.3,   -5.3,   -5.3,   -5.0,   -5.2,   -4.9,   -5.2,   -5.1,   -5.1,   -5.1,   -5.1,   -5.0,   -5.3,   -5.1,   -5.2,   -5.3,   -5.2,   -5.3,   -5.1,   -5.1,   -5.3,   -5.4,   -5.9,   -5.9,   -6.5,   -6.4,   -6.6,   -6.5,   -6.5,   -6.5,   -6.3,   -6.1,   -5.8,   -5.9,   -5.7,   -5.0,   -3.7,  999.0,   -1.8,   -1.4,   -1.2,   -1.1,   -1.0,   -0.9,   -0.8,   -0.7,   -0.8,   -0.6,   -0.7,   -0.4,    0.2,    0.3,  999.0,  999.0,  999.0,  999.0,  999.0,  999.0,  999.0,  999.0,  999.0,  999.0,  999.0,  999.0,  999.0,  999.0,  999.0,  999.0
2003/07/08 04:50,   -5.0,   -5.1,   -5.1,   -5.1,   -5.0,   -5.3,   -5.1,   -5.3,   -5.3,   -5.2,   -5.3,   -5.4,   -5.7,   -5.7,   -5.7,   -5.4,   -5.4,   -5.4,   -5.5,   -5.6,   -5.7,   -5.5,   -5.6,   -5.7,   -5.9,   -6.5,   -6.5,   -6.2,   -6.6,   -6.7,   -6.8,   -6.7,   -6.8,   -6.5,   -6.3,   -6.2,   -5.8,   -5.3,   -4.4,   -3.3,   -3.0,   -2.4,   -2.0,   -1.9,   -1.6,   -1.6,   -1.9,   -2.0,   -1.9,   -1.4,   -1.8,   -1.7,   -1.4,   -1.1,   -0.9,   -0.7,   -0.7,  999.0,  999.0,  999.0,    0.3,  999.0,  999.0,  999.0,  999.0,  999.0,  999.0,  999.0,  999.0,  999.0
2003/07/08 05:00,    0.0,    0.1,   -1.5,   -1.5,   -1.3,   -1.4,   -1.0,   -1.0,    0.1,    0.1,    0.1,    0.1,    0.2,    0.3,    0.4,    0.4,    0.2,    0.2,    0.2,    0.2,    0.1,    0.2,    0.3,   -0.5,   -0.4,   -0.3,   -0.4,   -0.3,   -0.6,   -1.2,   -1.1,   -1.3,   -1.5,   -1.4,   -1.1,   -0.7,   -0.9,   -0.9,   -1.2,   -1.0,   -0.9,   -0.1,  999.0,   -2.0,  999.0,   -2.6,  999.0,  999.0,  999.0,  999.0,  999.0,  999.0,  999.0,  999.0,  999.0,  999.0,  999.0,    1.1,  999.0,    0.7,    1.6,    2.2,    1.5,    0.4,  999.0,   -0.9,   -0.5,   -0.9,   -0.6,   -0.7
2003/07/08 05:10,   -1.3,   -1.2,   -1.1,   -1.1,   -1.5,   -1.5,   -1.5,   -1.9,   -1.3,   -1.6,   -1.2,   -1.6,   -1.4,   -1.4,   -1.6,   -1.9,   -1.9,   -2.1,   -2.2,   -2.3,   -2.5,   -2.5,   -2.3,   -2.2,   -2.1,   -2.0,   -2.1,   -2.2,   -2.2,   -2.1,   -2.0,   -2.0,   -1.9,   -1.8,   -1.8,   -1.8,   -1.6,   -1.5,   -1.3,   -1.3,   -1.1,   -0.9,   -0.6,   -0.5,   -0.3,   -0.2,   -0.1,  999.0,  999.0,   -0.3,   -0.5,   -0.4,   -0.7,   -0.6,   -0.4,   -0.3,  999.0,  999.0,  999.0,  999.0,  999.0,  999.0,  999.0,  999.0,  999.0,  999.0,  999.0,  999.0,  999.0,  999.0
2003/07/08 05:20,   -3.5,   -3.8,   -4.8,   -4.6,   -4.2,   -4.2,   -4.1,   -4.1,   -4.1,   -4.1,   -4.2,   -4.1,   -4.1,   -3.9,   -3.9,   -3.9,   -3.8,   -4.1,   -4.0,   -4.0,   -3.8,   -3.7,   -3.7,   -3.6,   -3.5,   -3.6,   -3.6,   -3.5,   -3.1,   -3.2,   -3.0,   -3.7,   -4.2,   -4.1,   -3.9,   -3.6,   -3.1,   -3.0,   -2.9,   -2.4,   -1.6,   -1.3,   -1.0,   -0.7,   -0.6,   -0.3,  999.0,    0.0,    0.4,  999.0,  999.0,  999.0,  999.0,  999.0,  999.0,  999.0,  999.0,  999.0,  999.0,   -0.5,   -0.7,   -0.6,  999.0,  999.0,  999.0,  999.0,  999.0,  999.0,  999.0,  999.0
2003/07/08 05:30,   -5.7,   -5.6,   -5.5,   -5.5,   -5.7,   -5.6,   -6.1,   -6.0,   -6.1,   -5.9,   -5.9,   -5.8,   -6.2,   -6.1,   -6.6,   -6.2,   -6.2,   -6.2,   -6.2,   -6.4,   -6.5,   -6.6,   -6.7,   -6.6,   -6.6,   -6.6,   -6.6,   -6.6,   -6.7,   -6.8,   -7.0,   -7.0,   -6.9,   -6.6,   -6.4,   -6.2,   -5.9,   -5.6,   -4.9,   -4.3,   -3.7,   -2.5,   -2.8,   -2.7,   -2.4,   -2.1,   -2.1,   -1.6,   -1.3,   -1.1,   -0.9,   -0.9,   -0.7,   -0.7,   -0.7,   -0.6,   -0.3,   -0.4,   -0.5,   -0.5,   -1.0,   -1.1,   -0.9,  999.0,  999.0,  999.0,   -0.6,  999.0,  999.0,  999.0
2003/07/08 05:40,   -6.6,   -6.3,   -6.1,   -6.1,   -6.3,   -6.1,   -5.5,   -5.1,   -4.8,   -4.4,   -4.9,   -3.8,   -3.5,   -2.3,   -4.1,   -4.7,   -4.3,   -3.7,   -3.6,   -3.2,   -3.6,   -3.3,   -3.0,   -2.5,   -2.5,   -2.1,   -1.7,   -1.1,   -2.0,   -1.3,   -2.2,   -0.7,   -1.5,   -0.9,   -1.2,   -1.5,   -3.7,   -2.5,   -3.4,   -2.9,   -1.9,   -2.1,   -1.5,   -1.0,   -1.1,   -0.9,   -1.6,   -1.8,   -3.2,   -2.8,   -2.5,   -2.4,   -2.2,   -2.3,   -2.0,   -2.3,   -1.9,   -1.8,   -1.8,   -1.5,   -1.6,   -1.4,   -1.1,   -0.9,   -0.8,   -0.9,   -1.0,   -0.9,   -0.8,   -0.9
2003/07/08 05:50,   -6.6,   -5.8,   -5.9,   -6.1,   -6.3,   -6.2,   -6.2,   -6.1,   -6.2,   -6.2,   -6.4,   -6.5,   -6.4,   -6.3,   -6.3,   -6.3,   -6.2,   -6.2,   -6.1,   -6.0,   -6.0,   -6.0,   -6.0,   -6.0,   -6.0,   -6.1,   -6.0,   -5.9,   -6.0,   -6.0,   -6.2,   -6.5,   -6.7,   -6.9,   -7.0,   -7.1,   -6.6,   -5.4,   -4.1,   -2.4,   -2.0,   -1.7,   -1.6,   -1.5,   -1.4,   -1.3,   -1.1,   -1.0,   -0.9,   -0.8,   -0.7,   -0.7,   -0.7,   -0.8,   -0.8,   -0.9,   -0.8,   -0.5,   -0.7,   -0.3,   -0.8,   -0.8,   -0.7,   -0.6,   -0.7,   -1.0,   -0.5,   -0.7,  999.0,   -0.9
2003/07/08 06:00,   -4.6,   -4.4,   -4.4,   -4.4,   -4.4,   -4.3,   -4.1,   -3.9,   -3.7,   -3.6,   -3.4,   -3.4,   -3.3,   -3.2,   -3.1,   -3.2,   -3.3,   -3.2,   -3.2,   -3.0,   -2.5,   -2.6,   -2.5,   -3.4,   -2.6,   -2.9,   -2.9,   -2.7,   -3.2,   -2.7,   -2.8,   -2.7,   -2.8,   -2.7,   -2.7,   -2.7,   -2.6,   -2.7,   -2.9,   -2.5,   -1.8,   -1.4,   -1.3,   -1.2,   -1.1,   -1.0,   -0.9,   -0.8,   -0.7,   -0.5,   -0.5,   -0.5,   -0.4,   -0.4,   -0.5,   -0.5,   -0.2,    0.3,  999.0,  999.0,  999.0,  999.0,  999.0,  999.0,  999.0,  999.0,  999.0,    0.1,  999.0,  999.0
2003/07/08 06:10,   -1.7,   -1.2,   -0.0,  999.0,   -0.5,    0.1,   -0.1,    0.1,    0.1,   -0.0,    0.2,    0.2,    0.4,    0.3,    0.3,    0.3,    0.4,    0.3,    0.2,    0.1,    0.1,    0.1,    0.0,    0.0,    0.4,  999.0,    0.3,    0.2,    0.3,    0.2,    0.3,    0.4,    0.4,  999.0,  999.0,  999.0,   -0.8,   -1.5,   -1.5,   -1.4,   -1.1,   -1.1,   -0.9,   -0.6,   -0.5,   -0.6,   -0.6,   -0.4,   -0.1,    0.0,    0.1,    0.3,  999.0,  999.0,  999.0,  999.0,  999.0,  999.0,  999.0,  999.0,  999.0,  999.0,  999.0,  999.0,  999.0,  999.0,  999.0,  999.0,  999.0,  999.0
2003/07/08 06:20,   -0.0,   -0.1,    0.0,    0.0,   -0.0,    0.3,   -0.0,    0.2,    0.1,    0.4,    0.5,    0.5,    0.4,    0.2,    0.1,    0.1,    0.1,   -0.0,   -0.0,    0.0,   -0.0,   -0.1,    0.0,    0.2,  999.0,   -0.2,    0.2,    0.1,    0.2,    0.3,    0.3,    0.1,    0.3,    0.2,  999.0,  999.0,  999.0,  999.0,   -0.0,  999.0,  999.0,  999.0,  999.0,  999.0,  999.0,  999.0,  999.0,    0.2,    0.4,  999.0,  999.0,  999.0,  999.0,  999.0,  999.0,  999.0,  999.0,  999.0,  999.0,  999.0,  999.0,  999.0,   -0.7,  999.0,   -0.6,   -0.9,   -0.5,   -0.5,   -0.8,   -0.4
2003/07/08 06:30,   -0.1,   -0.0,   -0.1,    0.0,    0.2,   -0.1,    0.1,    0.1,    0.4,    0.4,    0.3,    0.4,    0.2,    0.3,    0.3,    0.3,    0.3,    0.3,    0.3,    0.6,    0.0,    0.1,    0.3,    0.2,  999.0,   -0.1,    0.3,    0.4,    0.3,    0.3,    0.1,    0.2,    0.5,  999.0,    0.3,   -0.0,  999.0,  999.0,  999.0,  999.0,  999.0,  999.0,    0.2,  999.0,  999.0,  999.0,  999.0,    0.2,  999.0,  999.0,  999.0,  999.0,  999.0,    0.3,  999.0,  999.0,  999.0,  999.0,  999.0,   -0.8,   -0.7,   -0.8,   -0.8,   -0.8,   -0.8,   -0.8,   -0.8,   -0.9,   -0.7,   -0.9
2003/07/08 06:40,    0.0,   -0.1,   -0.1,    0.1,   -0.4,   -0.1,    0.1,    0.2,    0.1,    0.2,    0.2,    0.3,    0.4,    0.1,    0.3,    0.4,    0.5,    0.1,    0.1,    0.3,    0.2,    0.2,    0.5,    0.1,  999.0,  999.0,    0.3,    0.2,    0.0,   -0.0,    0.2,    0.0,    0.2,  999.0,  999.0,  999.0,   -0.0,    0.1,  999.0,  999.0,  999.0,  999.0,  999.0,   -0.0,  999.0,  999.0,  999.0,    0.1,  999.0,  999.0,  999.0,  999.0,  999.0,  999.0,  999.0,  999.0,  999.0,  999.0,   -0.7,   -0.7,   -0.7,   -0.7,   -0.6,   -0.6,   -0.6,   -0.6,   -0.5,   -0.4,   -0.7,  999.0
2003/07/08 06:50,   -0.0,   -0.0,   -0.0,    0.3,    0.0,    0.0,    0.1,    0.0,    0.3,   -0.0,    0.1,    0.2,    0.4,    0.3,    0.2,    0.6,    0.6,    0.2,    0.4,    0.2,    0.3,    0.3,    0.1,    0.2,    0.1,   -0.3,    0.1,   -0.0,    0.2,    0.2,    0.2,    0.1,    0.2,    0.1,  999.0,  999.0,  999.0,  999.0,  999.0,  999.0,  999.0,  999.0,  999.0,  999.0,  999.0,  999.0,  999.0,  999.0,  999.0,  999.0,  999.0,  999.0,  999.0,  999.0,  999.0,  999.0,  999.0,  999.0,   -0.9,   -0.4,   -0.6,   -0.6,   -0.6,   -0.6,   -0.5,   -0.5,   -0.4,   -0.4,  999.0,  999.0
2003/07/08 07:00,    0.1,   -0.1,    0.1,    0.1,    0.1,    0.1,    0.1,    0.1,   -0.4,   -0.5,   -0.4,   -0.2,   -0.1,    0.1,   -0.3,   -0.4,   -0.4,   -0.3,   -0.8,   -0.5,   -0.5,   -0.5,   -0.6,   -0.6,   -0.4,   -0.2,   -0.3,   -0.2,   -0.1,    0.0,    0.1,   -0.2,    0.0,    0.2,   -1.1,   -2.5,   -1.5,    0.2,    0.4,  999.0,   -2.3,  999.0,  999.0,   -1.2,   -1.0,   -0.7,   -1.0,   -0.9,   -1.1,   -0.9,   -1.1,   -0.8,   -0.5,   -1.1,   -1.0,   -1.0,   -1.1,   -1.4,   -1.1,   -1.1,   -1.0,   -0.9,   -0.8,   -0.7,   -0.7,   -0.7,   -0.5,   -0.3,   -0.6,   -0.6
2003/07/08 07:10,   -4.3,   -4.6,   -4.5,   -4.4,   -4.3,   -4.2,   -4.2,   -4.2,   -4.1,   -4.0,   -4.1,   -4.0,   -4.0,   -4.4,   -4.4,   -4.3,   -4.1,   -4.0,   -4.1,   -3.9,   -3.8,   -3.8,   -3.6,   -3.5,   -3.5,   -3.4,   -3.3,   -3.1,   -3.0,   -2.8,   -2.6,   -2.4,   -2.3,   -2.1,   -1.9,   -1.6,   -1.6,   -1.5,   -1.3,   -1.3,   -1.7,   -1.7,   -1.6,   -1.4,   -1.3,   -1.2,   -1.0,   -0.8,   -0.7,   -0.5,   -0.5,   -0.6,   -0.7,   -0.9,   -0.9,   -0.9,   -0.8,   -0.8,   -0.8,   -0.7,   -0.8,   -0.9,   -0.9,   -0.9,   -0.8,   -0.7,   -0.7,   -0.5,   -0.5,   -0.3
2003/07/08 07:20,   -5.5,   -5.6,   -5.3,   -5.6,   -5.5,   -5.5,   -5.3,   -5.0,   -5.0,   -5.0,   -5.1,   -5.4,   -5.3,   -5.4,   -5.5,   -5.5,   -5.5,   -5.3,   -5.4,   -5.4,   -5.4,   -5.4,   -5.4,   -5.4,   -5.4,   -5.4,   -5.4,   -5.4,   -5.4,   -5.3,   -5.2,   -5.2,   -5.1,   -4.9,   -4.8,   -4.7,   -4.5,   -4.2,   -4.1,   -4.2,   -3.6,   -3.2,   -2.8,   -2.6,   -2.4,   -2.1,   -1.9,   -1.7,   -1.5,   -1.4,   -1.3,   -1.2,   -1.1,   -0.9,   -0.7,   -0.6,   -0.5,   -0.5,   -1.0,   -1.0,   -1.0,   -1.1,   -1.0,   -1.0,   -0.9,   -0.8,   -0.9,   -0.7,   -0.7,   -0.8
2003/07/08 07:30,   -6.4,   -6.8,   -6.9,   -6.8,   -6.7,   -6.6,   -6.4,   -6.3,   -6.2,   -6.0,   -5.9,   -5.8,   -5.6,   -5.6,   -5.5,   -5.7,   -6.1,   -6.0,   -6.1,   -6.1,   -5.9,   -6.1,   -5.9,   -6.1,   -5.9,   -6.1,   -6.2,   -6.1,   -5.8,   -6.2,   -6.2,   -6.1,   -5.9,   -5.8,   -5.7,   -5.8,   -5.8,   -5.8,   -4.9,   -4.1,   -3.2,   -2.8,   -2.4,   -2.0,   -1.7,   -1.8,   -1.7,   -1.6,   -1.5,   -1.4,   -1.2,   -1.0,   -0.9,   -0.9,   -0.8,   -0.7,   -0.7,   -0.7,   -0.7,   -0.6,   -0.5,   -0.5,   -0.5,   -0.4,   -0.5,   -0.4,   -0.4,   -0.4,   -0.5,   -0.5
2003/07/08 07:40,   -6.3,   -6.2,   -6.3,   -6.2,   -6.2,   -6.1,   -6.0,   -6.0,   -5.9,   -5.6,   -5.5,   -5.3,   -5.2,   -5.5,   -5.2,   -5.2,   -5.0,   -4.8,   -4.9,   -4.9,   -5.0,   -5.0,   -4.8,   -5.2,   -5.0,   -5.1,   -5.1,   -5.3,   -5.2,   -5.2,   -5.2,   -5.1,   -5.0,   -5.0,   -4.8,   -4.5,   -4.0,   -4.1,   -4.0,   -3.8,   -3.1,   -2.6,   -2.4,   -2.1,   -1.8,   -1.5,   -1.3,   -1.2,   -0.9,   -0.7,   -0.4,   -0.1,   -0.5,   -0.7,   -0.8,   -0.7,   -0.8,   -0.8,   -0.9,   -1.0,   -1.0,   -1.0,   -0.8,   -0.8,   -0.7,   -0.6,   -0.6,   -0.6,   -0.4,   -0.6
2003/07/08 07:50,   -3.0,   -3.0,   -2.8,   -2.7,   -2.5,   -2.7,   -2.7,   -3.7,   -3.1,   -3.2,   -3.3,   -3.0,   -3.2,   -2.9,   -3.2,   -3.1,   -3.0,   -3.0,   -3.0,   -2.7,   -3.0,   -3.0,   -3.0,   -3.8,   -3.0,   -3.0,   -3.6,   -3.6,   -4.4,   -3.3,   -4.1,   -4.1,   -4.0,   -3.9,   -3.5,   -3.5,   -3.5,   -3.4,   -3.4,   -3.2,   -2.3,   -1.3,   -1.2,   -1.2,   -1.2,   -1.2,   -1.0,   -0.9,   -0.8,   -0.6,   -0.5,   -0.5,   -0.6,   -0.6,   -0.8,   -0.9,   -0.9,   -0.9,   -0.9,   -0.9,   -0.9,   -0.7,   -0.6,   -0.6,   -0.7,   -0.7,   -0.6,   -0.7,   -0.8,   -0.7
2003/07/08 08:00,    0.1,    0.1,    0.1,    0.3,    0.4,    0.4,    0.1,    0.5,    0.3,   -0.0,    0.0,    0.2,    0.3,    0.3,    0.2,    0.3,    0.3,    0.3,  999.0,  999.0,    0.2,   -0.0,    0.3,    0.1,    0.2,    0.3,    0.3,    0.3,    0.2,    0.1,   -0.1,   -0.1,   -0.1,   -0.0,   -0.1,    0.0,  999.0,    0.1,    0.2,  999.0,  999.0,  999.0,  999.0,  999.0,   -0.8,   -1.0,   -0.9,   -1.0,   -1.0,   -1.0,   -0.9,   -0.8,   -1.0,   -1.1,   -1.2,   -1.1,   -1.1,   -1.1,   -1.1,   -1.1,   -1.0,   -1.1,   -1.0,   -1.0,   -1.0,   -1.0,   -1.0,   -1.0,   -0.9,   -0.9
2003/07/08 08:10,   -3.2,   -3.0,   -2.6,   -3.0,   -3.0,   -2.9,   -3.0,   -3.1,   -3.1,   -3.1,   -3.1,   -3.1,   -3.0,   -2.9,   -2.9,   -2.9,   -2.9,   -2.9,   -2.9,   -2.7,   -3.5,   -2.7,   -2.6,   -3.2,   -2.5,   -3.1,   -2.4,   -2.3,   -3.0,   -2.9,   -2.9,   -2.3,   -3.1,   -3.2,   -3.2,   -2.6,   -2.6,   -3.0,   -3.4,   -2.9,   -1.8,   -1.2,   -1.1,   -1.1,   -1.1,   -1.1,   -1.1,   -1.2,   -1.2,   -1.3,   -1.3,   -1.3,   -1.3,   -1.2,   -1.2,   -1.1,   -1.1,   -1.1,   -1.0,   -1.1,   -1.1,   -1.1,   -1.0,   -1.0,   -1.1,   -1.0,   -1.0,   -1.0,   -1.0,   -1.0
2003/07/08 08:20,   -3.8,   -3.8,   -3.6,   -3.8,   -4.0,   -4.0,   -4.1,   -4.0,   -3.9,   -4.0,   -4.0,   -4.0,   -4.0,   -4.0,   -4.0,   -4.0,   -4.0,   -3.9,   -4.0,   -3.9,   -3.8,   -3.8,   -3.8,   -3.8,   -3.7,   -3.7,   -3.6,   -3.6,   -3.6,   -3.6,   -3.6,   -3.6,   -3.6,   -3.6,   -3.6,   -3.6,   -3.7,   -3.7,   -3.9,   -3.5,   -2.1,   -1.4,   -1.3,   -1.4,   -1.3,   -1.4,   -1.4,   -1.4,   -1.4,   -1.3,   -1.3,   -1.2,   -1.2,   -1.1,   -1.1,   -1.1,   -1.1,   -1.0,   -1.0,   -1.0,   -1.0,   -0.9,   -0.9,   -0.9,   -0.9,   -0.9,   -0.9,   -0.8,   -0.8,   -0.9
2003/07/08 08:30,   -4.9,   -4.7,   -5.1,   -4.7,   -4.7,   -4.6,   -4.7,   -4.7,   -4.8,   -4.9,   -4.9,   -4.9,   -4.9,   -5.0,   -5.0,   -5.0,   -5.0,   -5.0,   -5.0,   -5.0,   -5.0,   -5.0,   -5.1,   -5.1,   -5.2,   -5.2,   -5.1,   -5.1,   -5.1,   -5.0,   -5.0,   -5.0,   -5.0,   -5.1,   -5.1,   -5.2,   -5.4,   -5.3,   -4.6,   -2.9,   -1.8,   -1.7,   -1.6,   -1.6,   -1.5,   -1.4,   -1.3,   -1.2,   -1.2,   -1.2,   -1.2,   -1.1,   -1.1,   -1.1,   -1.1,   -1.1,   -1.1,   -1.1,   -1.1,   -1.1,   -1.0,   -1.0,   -1.0,   -1.0,   -1.0,   -1.0,   -1.0,   -0.9,   -0.9,   -0.8
2003/07/08 08:40,   -4.5,   -4.7,   -4.4,   -4.5,   -4.5,   -4.5,   -4.6,   -4.6,   -4.6,   -4.5,   -4.4,   -4.5,   -4.6,   -4.6,   -4.7,   -4.7,   -4.7,   -4.7,   -4.9,   -5.0,   -5.1,   -5.2,   -5.0,   -4.9,   -4.8,   -4.8,   -4.7,   -4.7,   -4.6,   -4.6,   -4.6,   -4.5,   -4.6,   -4.7,   -4.7,   -4.7,   -4.6,   -4.6,   -4.2,   -3.1,   -1.8,   -1.3,   -1.2,   -1.2,   -1.1,   -1.1,   -1.1,   -1.2,   -1.1,   -1.2,   -1.2,   -1.2,   -1.2,   -1.2,   -1.2,   -1.2,   -1.3,   -1.3,   -1.1,   -1.0,   -0.9,   -0.8,   -0.8,   -0.8,   -0.7,   -0.7,   -0.7,   -0.6,   -0.7,   -0.7
2003/07/08 08:50,   -2.0,   -2.4,   -3.1,   -3.4,   -3.3,   -3.1,   -3.2,   -3.2,   -3.4,   -3.3,   -3.5,   -3.4,   -3.3,   -3.3,   -3.4,   -3.5,   -3.4,   -3.5,   -3.4,   -3.2,   -3.1,   -3.0,   -2.9,   -2.8,   -2.8,   -2.8,   -2.9,   -3.0,   -3.0,   -3.1,   -3.2,   -3.2,   -3.2,   -3.2,   -3.2,   -3.2,   -3.1,   -3.2,   -3.1,   -2.0,   -1.2,   -0.9,   -0.9,   -0.9,   -0.9,   -0.8,   -0.8,   -0.8,   -0.8,   -0.7,   -0.7,   -0.7,   -0.8,   -0.6,   -0.7,   -0.8,   -0.9,   -1.0,   -0.9,   -1.0,   -1.1,   -1.1,   -1.0,   -0.9,   -0.9,   -0.8,   -0.8,   -0.9,   -0.9,   -0.9
2003/07/08 09:00,   -2.0,   -2.5,   -2.1,   -2.6,   -1.7,   -1.5,   -1.6,   -1.8,   -1.9,   -1.9,   -2.0,   -2.1,   -2.4,   -2.4,   -2.3,   -2.3,   -2.4,   -2.2,   -2.1,   -2.1,   -2.2,   -2.2,   -2.4,   -2.2,   -1.9,   -3.0,   -3.1,   -2.9,   -2.9,   -2.8,   -2.8,   -2.8,   -2.7,   -2.8,   -2.8,   -2.9,   -3.0,   -2.8,   -2.5,   -1.8,   -1.3,   -1.1,   -0.9,   -1.0,   -1.0,   -0.9,   -0.8,   -0.5,   -0.6,   -0.6,   -0.3,   -0.4,   -0.8,   -0.0,  999.0,  999.0,  999.0,  999.0,   -0.0,   -0.2,  999.0,  999.0,   -1.4,   -1.0,   -1.2,   -0.8,   -1.0,   -0.7,   -0.8,   -0.9
2003/07/08 09:10,   -0.1,    0.4,    0.1,    0.3,    0.7,    0.5,    0.2,    0.3,   -0.1,    0.2,   -0.0,   -0.7,   -0.3,   -0.2,   -0.3,   -0.1,   -0.2,   -0.0,    0.1,   -0.1,    0.2,    0.1,    0.3,    0.3,    0.3,    0.3,    0.2,    0.2,    0.1,    0.0,  999.0,  999.0,  999.0,  999.0,  999.0,    0.0,    0.2,    0.2,    0.1,   -1.4,   -1.1,   -0.5,   -0.2,   -0.9,   -0.8,   -0.6,   -0.6,   -0.4,   -0.6,   -0.8,   -0.5,   -0.4,   -0.4,  999.0,   -0.1,  999.0,   -0.1,    0.1,    0.3,  999.0,  999.0,  999.0,  999.0,  999.0,   -1.2,   -1.0,   -1.1,   -0.9,   -0.6,   -0.8
2003/07/08 09:20,    0.1,    0.3,    0.6,    0.4,    0.2,    0.3,    0.3,   -0.1,    0.1,   -0.2,   -0.2,   -0.1,   -0.0,   -0.0,   -0.1,   -0.1,   -0.1,   -0.0,   -0.0,    0.0,    0.0,   -0.0,    0.0,    0.1,    0.2,    0.1,    0.0,    0.2,    0.0,    0.1,    0.5,    0.3,    0.4,    0.4,    0.5,  999.0,  999.0,    0.2,    0.2,    0.1,    0.1,  999.0,   -0.3,  999.0,  999.0,  999.0,  999.0,  999.0,   -0.8,   -0.8,   -0.7,   -0.5,  999.0,   -0.7,   -0.4,   -0.0,    0.1,    0.3,    0.3,  999.0,  999.0,  999.0,  999.0,   -1.0,   -0.4,   -0.9,   -0.9,   -0.9,   -0.7,   -0.8
2003/07/08 09:30,   -0.1,    0.1,    0.3,    0.0,    0.2,    0.0,   -0.1,    0.1,   -0.2,   -0.0,   -0.0,   -0.1,    0.1,    0.1,   -0.0,   -0.2,   -0.0,    0.0,   -0.0,   -0.0,    0.2,    0.4,    0.2,    0.1,    0.2,    0.2,    0.2,  999.0,  999.0,  999.0,    0.2,    0.2,   -0.2,  999.0,  999.0,  999.0,  999.0,  999.0,    0.3,    0.2,    0.2,  999.0,    0.0,  999.0,  999.0,  999.0,    0.0,    0.1,  999.0,  999.0,  999.0,  999.0,  999.0,  999.0,  999.0,    0.4,    0.1,    0.5,  999.0,  999.0,  999.0,  999.0,   -1.0,   -1.0,   -1.0,   -0.8,   -0.9,   -0.9,   -0.9,   -0.8
2003/07/08 09:40,    0.1,   -0.0,    0.1,   -0.0,   -0.0,   -0.1,    0.1,   -0.1,   -0.1,    0.0,    0.0,   -0.1,   -0.3,   -0.2,    0.0,    0.1,    0.0,   -0.0,    0.2,    0.3,    0.1,    0.3,    0.3,    0.4,    0.3,    0.4,   -0.0,  999.0,  999.0,  999.0,  999.0,  999.0,    0.4,  999.0,  999.0,  999.0,  999.0,  999.0,    0.2,    0.3,    0.2,  999.0,  999.0,    0.0,  999.0,  999.0,  999.0,  999.0,  999.0,  999.0,  999.0,  999.0,  999.0,  999.0,    0.2,  999.0,    0.2,  999.0,  999.0,  999.0,  999.0,  999.0,   -1.2,   -1.0,   -1.0,   -0.9,   -0.9,   -0.9,   -1.0,   -1.0
2003/07/08 09:50,    0.0,    0.0,    0.2,   -0.1,    0.0,   -0.1,    0.3,    0.1,    0.2,    0.0,    0.2,    0.1,    0.1,    0.3,    0.2,    0.2,    0.4,    0.3,    0.2,    0.2,    0.3,    0.4,    0.4,    0.4,    0.2,   -0.0,  999.0,  999.0,  999.0,  999.0,  999.0,    0.1,    0.2,   -0.0,   -0.0,  999.0,  999.0,  999.0,  999.0,   -0.0,   -0.0,  999.0,  999.0,  999.0,  999.0,    0.4,    0.4,    0.1,  999.0,  999.0,  999.0,  999.0,  999.0,  999.0,  999.0,  999.0,  999.0,  999.0,  999.0,  999.0,  999.0,  999.0,  999.0,  999.0,   -0.7,   -0.7,   -1.0,   -1.0,   -1.0,   -1.1
2003/07/08 10:00,    0.0,   -0.0,   -0.2,   -0.2,   -0.2,   -0.1,   -0.2,   -0.1,    0.2,    0.0,   -0.1,    0.0,    0.0,    0.0,    0.1,    0.1,    0.1,    0.1,    0.3,    0.2,    0.1,    0.2,    0.3,    0.3,   -0.0,    0.4,  999.0,    0.3,    0.4,  999.0,    0.1,    0.0,    0.0,  999.0,   -0.2,   -0.0,  999.0,  999.0,  999.0,    0.2,    0.2,  999.0,  999.0,    0.3,  999.0,  999.0,  999.0,  999.0,    0.1,  999.0,  999.0,  999.0,  999.0,  999.0,  999.0,  999.0,  999.0,  999.0,    0.3,   -0.2,  999.0,  999.0,  999.0,   -1.1,   -1.1,   -1.1,   -1.1,   -1.1,   -1.1,   -1.2
2003/07/08 10:10,   -0.0,   -0.1,   -0.0,   -0.1,   -0.4,   -0.4,   -0.2,   -0.2,    0.1,   -0.2,    0.0,   -0.0,   -0.0,    0.1,    0.2,    0.0,    0.1,   -0.0,   -0.1,    0.0,    0.1,    0.2,    0.3,    0.4,    0.6,    0.3,    0.5,    0.7,    0.4,   -0.0,    0.2,    0.1,    0.0,  999.0,  999.0,   -0.1,  999.0,  999.0,    0.2,    0.2,  999.0,    0.1,  999.0,  999.0,    0.0,  999.0,    0.0,    0.4,    0.3,  999.0,  999.0,  999.0,  999.0,  999.0,    0.4,  999.0,  999.0,  999.0,  999.0,    0.2,  999.0,  999.0,   -0.7,   -1.1,   -1.2,   -1.1,   -1.1,   -1.1,   -1.1,   -1.0
2003/07/08 10:20,   -0.0,    0.0,   -0.3,   -0.5,   -0.5,   -0.9,   -0.5,   -0.7,   -0.7,   -0.5,   -0.4,   -0.4,   -0.4,   -0.3,   -0.2,   -0.3,   -0.1,   -0.0,   -0.2,   -0.2,   -0.2,   -0.2,   -0.2,   -0.1,   -0.3,   -0.3,    0.1,    0.0,    0.1,   -0.1,   -0.2,   -0.2,  999.0,  999.0,  999.0,  999.0,  999.0,  999.0,   -0.2,  999.0,   -0.3,   -0.2,  999.0,  999.0,    0.1,    0.0,    0.1,   -0.0,  999.0,  999.0,  999.0,  999.0,  999.0,  999.0,    0.2,    0.3,    0.0,  999.0,  999.0,  999.0,  999.0,  999.0,  999.0,  999.0,  999.0,  999.0,  999.0,  999.0,  999.0,  999.0
2003/07/08 10:30,   -0.0,   -0.2,   -0.4,   -0.3,   -0.7,   -0.7,   -0.4,   -0.5,   -0.6,   -0.5,   -0.6,   -0.4,   -0.3,   -0.3,   -0.3,   -0.4,   -0.3,   -0.1,   -0.0,    0.0,    0.0,    0.0,    0.1,    0.1,    0.1,    0.2,    0.4,    0.3,    0.2,    0.1,    0.1,   -0.1,   -0.2,  999.0,  999.0,  999.0,  999.0,  999.0,    0.1,    0.1,   -0.0,    0.2,   -0.0,    0.3,   -0.1,   -0.3,  999.0,  999.0,  999.0,  999.0,  999.0,  999.0,  999.0,    0.2,    0.3,    0.4,  999.0,  999.0,  999.0,  999.0,  999.0,  999.0,  999.0,  999.0,  999.0,  999.0,  999.0,  999.0,  999.0,  999.0
2003/07/08 10:40,   -0.1,   -0.3,    0.0,    0.2,   -0.3,   -0.2,   -0.3,    0.3,   -0.1,    0.1,    0.0,    0.1,    0.1,    0.4,    0.3,    0.0,    0.0,    0.1,    0.2,    0.2,    0.2,    0.3,    0.3,    0.1,    0.3,    0.3,    0.2,    0.4,    0.3,    0.1,    0.2,    0.4,    0.8,  999.0,  999.0,  999.0,  999.0,  999.0,  999.0,    0.3,  999.0,    0.7,  999.0,  999.0,  999.0,  999.0,  999.0,  999.0,  999.0,  999.0,  999.0,  999.0,    0.7,    0.6,    0.9,    0.7,  999.0,  999.0,  999.0,  999.0,  999.0,  999.0,  999.0,  999.0,  999.0,  999.0,  999.0,  999.0,  999.0,  999.0
2003/07/08 10:50,   -0.3,   -0.1,   -0.6,   -0.4,   -1.1,   -0.7,   -1.2,   -0.7,   -0.7,   -0.4,   -0.4,   -0.3,   -0.2,   -0.4,   -0.2,   -0.1,   -0.1,   -0.0,    0.1,    0.1,    0.1,    0.1,    0.1,    0.2,    0.1,   -0.2,    0.2,   -0.0,   -0.2,    0.2,    0.0,    0.4,   -0.0,  999.0,  999.0,  999.0,  999.0,  999.0,  999.0,    0.8,  999.0,  999.0,    0.3,  999.0,  999.0,  999.0,  999.0,  999.0,  999.0,  999.0,  999.0,  999.0,  999.0,  999.0,  999.0,  999.0,  999.0,  999.0,  999.0,  999.0,  999.0,  999.0,  999.0,  999.0,  999.0,  999.0,  999.0,  999.0,  999.0,  999.0
2003/07/08 11:00,   -0.1,   -0.2,   -0.5,   -0.6,   -0.5,   -0.4,   -0.5,   -0.5,   -0.6,   -0.3,   -0.4,   -0.3,   -0.0,   -0.0,    0.2,    0.4,    0.2,    0.1,   -0.1,    0.1,    0.2,    0.2,    0.1,   -0.0,   -0.0,    0.1,   -0.2,   -0.0,    0.2,    0.1,   -0.2,    0.4,  999.0,  999.0,  999.0,  999.0,  999.0,  999.0,  999.0,  999.0,  999.0,  999.0,    0.1,  999.0,  999.0,  999.0,  999.0,  999.0,  999.0,  999.0,  999.0,  999.0,  999.0,  999.0,  999.0,  999.0,  999.0,  999.0,  999.0,  999.0,  999.0,  999.0,  999.0,  999.0,  999.0,    0.5,  999.0,  999.0,  999.0,  999.0
2003/07/08 11:10,   -0.0,    0.1,    0.0,   -0.2,   -0.4,   -0.6,   -0.6,   -0.4,   -0.5,   -0.6,   -0.4,   -0.3,   -0.1,   -0.3,   -0.1,   -0.1,    0.0,    0.3,    0.1,    0.1,    0.3,    0.2,    0.3,    0.4,    0.2,    0.1,    0.3,    0.3,    0.3,    0.2,    0.2,    0.0,   -0.1,  999.0,  999.0,  999.0,  999.0,  999.0,  999.0,  999.0,  999.0,  999.0,  999.0,  999.0,  999.0,  999.0,  999.0,  999.0,  999.0,  999.0,  999.0,  999.0,  999.0,  999.0,  999.0,  999.0,  999.0,  999.0,  999.0,  999.0,  999.0,    0.3,  999.0,  999.0,  999.0,  999.0,  999.0,  999.0,  999.0,  999.0
2003/07/08 11:20,   -0.8,  999.0,   -1.3,   -1.1,   -1.6,   -1.1,   -1.4,   -0.7,   -0.5,   -0.6,   -0.3,   -0.3,   -0.0,    0.1,   -0.0,   -0.1,    0.1,    0.0,    0.1,    0.0,    0.1,    0.1,    0.2,    0.2,    0.3,    0.3,    0.3,    0.1,    0.2,    0.2,   -0.1,    0.3,    0.0,  999.0,  999.0,  999.0,  999.0,  999.0,  999.0,  999.0,  999.0,  999.0,    0.5,  999.0,  999.0,  999.0,  999.0,  999.0,  999.0,  999.0,  999.0,  999.0,  999.0,  999.0,  999.0,  999.0,  999.0,  999.0,  999.0,  999.0,  999.0,  999.0,  999.0,  999.0,  999.0,  999.0,  999.0,    0.4,  999.0,  999.0
2003/07/08 11:30,   -0.7,   -0.9,   -0.8,   -0.7,   -1.0,   -0.9,   -0.7,   -0.6,   -0.7,   -0.5,   -0.4,   -0.2,   -0.1,   -0.0,   -0.1,   -0.1,   -0.3,   -0.3,   -0.3,   -0.0,    0.0,    0.1,    0.2,    0.1,    0.2,    0.2,    0.4,    0.3,    0.4,    0.2,    0.2,    0.2,    0.3,  999.0,   -0.1,  999.0,  999.0,    0.5,  999.0,  999.0,  999.0,  999.0,  999.0,  999.0,  999.0,  999.0,  999.0,  999.0,  999.0,  999.0,  999.0,  999.0,  999.0,  999.0,  999.0,  999.0,  999.0,  999.0,  999.0,  999.0,  999.0,  999.0,  999.0,  999.0,  999.0,  999.0,    0.4,  999.0,  999.0,    0.1
2003/07/08 11:40,   -1.8,   -1.6,   -1.5,   -1.3,   -1.5,   -1.2,   -1.2,   -1.2,   -1.6,   -1.4,   -1.5,   -1.4,   -1.1,   -1.1,   -0.9,   -0.6,   -0.4,   -0.3,   -0.2,   -0.1,   -0.0,    0.1,    0.2,    0.3,    0.4,    0.2,    0.1,    0.3,    0.2,    0.2,   -0.0,    0.1,    0.2,    0.0,  999.0,  999.0,  999.0,  999.0,  999.0,  999.0,  999.0,  999.0,    0.6,    0.4,  999.0,  999.0,  999.0,  999.0,  999.0,  999.0,  999.0,  999.0,  999.0,  999.0,  999.0,  999.0,  999.0,    0.1,  999.0,  999.0,  999.0,  999.0,  999.0,  999.0,  999.0,  999.0,  999.0,  999.0,  999.0,  999.0
2003/07/08 11:50,    0.2,    0.3,   -0.0,   -0.5,   -0.4,   -0.5,   -0.2,   -0.3,   -0.3,   -0.2,   -0.3,   -0.2,   -0.1,   -0.1,   -0.1,   -0.1,   -0.0,    0.1,   -0.0,    0.0,    0.1,   -0.2,   -0.3,   -0.0,   -0.0,   -0.2,   -0.1,    0.1,   -0.0,   -0.0,    0.3,    0.5,  999.0,  999.0,  999.0,  999.0,  999.0,  999.0,  999.0,  999.0,  999.0,  999.0,  999.0,    1.0,  999.0,  999.0,  999.0,  999.0,  999.0,  999.0,  999.0,  999.0,  999.0,  999.0,  999.0,  999.0,  999.0,  999.0,    0.5,    0.8,  999.0,  999.0,  999.0,  999.0,  999.0,  999.0,  999.0,  999.0,  999.0,  999.0
2003/07/08 12:00,    0.1,    0.2,    0.1,   -0.1,   -0.3,   -0.3,   -0.2,   -0.3,   -0.2,    0.0,    0.1,    0.1,    0.1,    0.2,    0.3,    0.3,    0.1,    0.1,    0.3,    0.3,    0.1,    0.1,    0.2,    0.2,    0.3,    0.3,    0.2,    0.1,    0.1,    0.3,    0.5,  999.0,  999.0,  999.0,  999.0,  999.0,  999.0,    0.2,    0.6,  999.0,  999.0,    0.4,  999.0,    0.6,    0.4,  999.0,  999.0,  999.0,  999.0,  999.0,  999.0,  999.0,  999.0,  999.0,  999.0,  999.0,  999.0,  999.0,  999.0,  999.0,  999.0,  999.0,  999.0,  999.0,  999.0,  999.0,  999.0,  999.0,  999.0,  999.0
2003/07/08 12:10,   -0.0,   -0.1,   -0.1,   -0.2,   -0.2,   -0.2,   -0.0,    0.1,    0.1,    0.0,    0.1,    0.4,    0.4,    0.5,    0.5,    0.5,    0.1,    0.3,    0.1,    0.4,    0.3,    0.3,    0.3,    0.6,    0.5,    0.3,    0.5,    0.2,    0.5,  999.0,  999.0,  999.0,  999.0,  999.0,  999.0,  999.0,  999.0,  999.0,    0.4,    0.7,  999.0,  999.0,    0.5,  999.0,  999.0,  999.0,  999.0,  999.0,  999.0,  999.0,  999.0,  999.0,  999.0,  999.0,  999.0,  999.0,  999.0,  999.0,  999.0,  999.0,  999.0,  999.0,  999.0,  999.0,  999.0,  999.0,  999.0,  999.0,  999.0,  999.0
2003/07/08 12:20,    0.3,   -0.1,    0.7,    0.5,    0.4,    0.4,    0.4,    0.2,    0.3,    0.4,    0.4,    0.4,    0.5,    0.3,    0.4,    0.5,    0.5,    0.3,    0.3,    0.4,    0.3,    0.4,    0.4,    0.3,    0.5,    0.2,    0.4,    0.2,    0.4,  999.0,  999.0,  999.0,  999.0,  999.0,  999.0,  999.0,  999.0,    0.5,    0.2,  999.0,  999.0,    0.3,  999.0,  999.0,  999.0,    0.0,  999.0,  999.0,  999.0,  999.0,  999.0,  999.0,  999.0,  999.0,  999.0,  999.0,  999.0,  999.0,  999.0,  999.0,  999.0,  999.0,  999.0,  999.0,  999.0,  999.0,  999.0,  999.0,  999.0,  999.0
2003/07/08 12:30,   -0.4,   -0.0,    0.5,    0.2,   -0.1,   -0.1,   -0.2,   -0.1,   -0.1,    0.0,    0.3,    0.4,    0.5,    0.7,    0.5,    0.9,    0.8,    0.4,    0.5,    0.5,    0.6,    0.6,    0.7,    0.6,  999.0,    0.2,   -0.1,    0.6,    0.4,    0.5,  999.0,   -0.0,  999.0,  999.0,  999.0,  999.0,  999.0,  999.0,  999.0,  999.0,  999.0,    0.0,  999.0,  999.0,   -0.1,  999.0,  999.0,  999.0,  999.0,  999.0,  999.0,  999.0,  999.0,  999.0,  999.0,  999.0,  999.0,  999.0,  999.0,  999.0,  999.0,  999.0,  999.0,  999.0,  999.0,  999.0,  999.0,  999.0,  999.0,  999.0
2003/07/08 12:40,  999.0,   -0.1,    0.2,    0.4,    0.3,    0.2,    0.3,    0.1,    0.2,    0.2,    0.4,    0.7,    0.5,    0.5,    0.5,    0.3,    0.5,    0.6,    0.5,    0.6,    0.6,    0.5,    0.5,    0.7,    0.8,    0.6,    0.7,    0.5,    0.2,    0.7,  999.0,  999.0,  999.0,  999.0,  999.0,  999.0,  999.0,    0.5,  999.0,   -0.1,    0.4,    0.2,  999.0,    0.3,    0.2,  999.0,  999.0,  999.0,  999.0,  999.0,  999.0,  999.0,  999.0,  999.0,  999.0,  999.0,  999.0,  999.0,  999.0,  999.0,  999.0,  999.0,  999.0,  999.0,  999.0,  999.0,  999.0,  999.0,  999.0,  999.0
2003/07/08 12:50,   -0.2,    0.2,    0.5,    0.3,    0.4,   -0.2,   -0.1,   -0.2,   -0.1,    0.1,    0.3,    0.4,    0.4,    0.5,    0.5,    0.4,    0.5,    0.6,    0.6,    0.5,    0.3,    0.3,   -0.2,    0.3,    0.1,    0.1,    0.2,    0.3,    0.2,    0.2,    0.3,   -0.0,  999.0,  999.0,  999.0,  999.0,  999.0,    0.2,  999.0,  999.0,  999.0,  999.0,  999.0,  999.0,    0.1,  999.0,  999.0,  999.0,  999.0,  999.0,  999.0,  999.0,  999.0,  999.0,  999.0,  999.0,  999.0,  999.0,  999.0,  999.0,  999.0,  999.0,  999.0,  999.0,  999.0,  999.0,    0.4,  999.0,  999.0,  999.0
2003/07/08 13:00,   -0.1,   -0.3,    0.4,    0.8,    0.9,    0.7,    0.6,    0.3,    0.5,    0.4,    0.4,    0.4,    0.6,    0.5,    0.8,    0.7,    0.8,    0.9,    0.4,    0.3,    0.3,    0.8,    0.0,    0.4,    0.2,    0.3,    0.3,  999.0,  999.0,  999.0,    0.4,  999.0,  999.0,  999.0,  999.0,   -0.2,    0.0,   -0.2,    0.2,    0.4,  999.0,  999.0,  999.0,  999.0,  999.0,  999.0,  999.0,  999.0,  999.0,  999.0,  999.0,  999.0,  999.0,  999.0,  999.0,  999.0,  999.0,  999.0,  999.0,  999.0,  999.0,  999.0,  999.0,  999.0,  999.0,  999.0,  999.0,  999.0,  999.0,  999.0
2003/07/08 13:10,    0.4,    0.1,    0.6,    0.4,    0.4,    1.0,    0.1,    0.1,   -0.3,   -0.0,    0.1,    0.0,    0.0,   -0.1,    0.4,    0.3,    0.2,    0.1,    0.0,    0.0,    0.1,    0.2,    0.1,    0.1,    0.1,   -0.1,   -0.0,  999.0,  999.0,  999.0,  999.0,  999.0,  999.0,  999.0,  999.0,  999.0,   -0.3,  999.0,  999.0,  999.0,  999.0,  999.0,  999.0,  999.0,  999.0,  999.0,  999.0,  999.0,  999.0,  999.0,  999.0,  999.0,  999.0,  999.0,  999.0,  999.0,  999.0,  999.0,  999.0,  999.0,  999.0,  999.0,  999.0,  999.0,  999.0,  999.0,  999.0,  999.0,  999.0,  999.0
2003/07/08 13:20,   -0.2,   -0.2,    0.1,   -0.2,   -0.3,   -0.3,   -0.1,    0.1,    0.3,    0.3,    0.3,    0.5,    0.4,    0.6,    0.4,    0.5,    0.3,   -0.0,   -0.1,    0.4,   -0.1,   -0.1,   -0.1,    0.1,    0.0,   -0.1,  999.0,  999.0,  999.0,  999.0,  999.0,  999.0,  999.0,  999.0,  999.0,  999.0,    0.2,  999.0,  999.0,  999.0,  999.0,  999.0,  999.0,   -0.0,  999.0,  999.0,  999.0,  999.0,  999.0,  999.0,  999.0,  999.0,  999.0,  999.0,  999.0,  999.0,  999.0,  999.0,  999.0,  999.0,  999.0,  999.0,  999.0,  999.0,  999.0,  999.0,  999.0,  999.0,  999.0,  999.0
2003/07/08 13:30,   -0.0,    0.1,   -0.4,   -0.0,    0.2,   -0.2,   -0.2,    0.0,    0.2,    0.2,    0.2,    0.2,    0.1,    0.1,    0.1,    0.2,    0.1,   -0.0,    0.0,    0.2,   -0.1,   -0.1,   -0.1,   -0.1,    0.0,   -0.1,  999.0,   -0.1,  999.0,  999.0,  999.0,  999.0,  999.0,  999.0,  999.0,  999.0,  999.0,  999.0,  999.0,  999.0,  999.0,  999.0,   -0.1,  999.0,  999.0,  999.0,  999.0,  999.0,  999.0,  999.0,  999.0,  999.0,  999.0,  999.0,  999.0,  999.0,  999.0,  999.0,  999.0,  999.0,  999.0,  999.0,  999.0,  999.0,  999.0,  999.0,  999.0,  999.0,  999.0,  999.0
2003/07/08 13:40,   -0.0,   -0.3,    0.2,    0.1,    0.7,    0.4,    0.3,    0.2,    0.3,    0.5,    0.4,    0.6,    0.6,    0.6,    0.7,    0.7,    0.6,    0.5,    0.6,    0.4,    0.4,    0.3,  999.0,   -0.1,   -0.2,   -0.2,   -0.1,   -0.4,   -0.4,  999.0,  999.0,    0.0,  999.0,  999.0,  999.0,  999.0,  999.0,  999.0,  999.0,  999.0,  999.0,   -0.1,   -0.1,  999.0,  999.0,  999.0,  999.0,  999.0,  999.0,  999.0,  999.0,  999.0,  999.0,  999.0,  999.0,  999.0,  999.0,  999.0,  999.0,  999.0,  999.0,  999.0,  999.0,  999.0,  999.0,  999.0,  999.0,  999.0,  999.0,  999.0
2003/07/08 13:50,    0.1,   -0.1,   -0.0,    0.6,    0.3,    0.4,    0.4,    0.1,   -0.1,    0.3,    0.5,    0.4,    0.1,    0.2,    0.3,    0.1,    0.2,    0.1,    0.1,    0.1,    0.0,    0.3,   -0.1,   -0.4,   -0.1,    0.1,   -0.2,   -0.4,   -0.7,  999.0,  999.0,  999.0,  999.0,  999.0,  999.0,  999.0,  999.0,  999.0,  999.0,  999.0,  999.0,  999.0,  999.0,    0.7,  999.0,  999.0,  999.0,  999.0,  999.0,  999.0,  999.0,  999.0,  999.0,  999.0,  999.0,  999.0,  999.0,  999.0,  999.0,  999.0,  999.0,  999.0,  999.0,  999.0,  999.0,  999.0,  999.0,  999.0,  999.0,  999.0
2003/07/08 14:00,   -0.0,   -0.0,    0.4,    0.3,   -0.2,    0.4,    0.2,    0.2,    0.0,    0.3,    0.1,   -0.0,    0.0,    0.3,    0.2,    0.4,    0.2,    0.1,    0.2,    0.3,    0.0,   -0.0,   -0.0,    0.1,  999.0,   -0.4,   -0.1,  999.0,  999.0,  999.0,  999.0,  999.0,   -0.2,   -0.1,  999.0,  999.0,  999.0,  999.0,  999.0,  999.0,  999.0,  999.0,  999.0,  999.0,  999.0,  999.0,  999.0,  999.0,  999.0,  999.0,  999.0,  999.0,  999.0,  999.0,  999.0,  999.0,  999.0,  999.0,  999.0,  999.0,  999.0,  999.0,  999.0,  999.0,  999.0,  999.0,  999.0,  999.0,  999.0,  999.0
2003/07/08 14:10,   -0.6,   -0.3,   -0.2,    0.1,    0.0,    0.2,    0.3,    0.4,    0.3,    0.1,    0.4,    0.1,    0.3,    0.5,    0.5,    0.5,    0.3,    0.2,    0.1,    0.1,   -0.1,   -0.1,   -0.1,   -0.1,   -0.4,  999.0,   -0.2,  999.0,  999.0,  999.0,  999.0,  999.0,    0.1,   -0.1,  999.0,  999.0,  999.0,  999.0,  999.0,  999.0,  999.0,  999.0,  999.0,  999.0,  999.0,  999.0,  999.0,  999.0,  999.0,  999.0,  999.0,  999.0,  999.0,  999.0,  999.0,  999.0,  999.0,  999.0,  999.0,  999.0,  999.0,  999.0,  999.0,  999.0,  999.0,  999.0,  999.0,  999.0,  999.0,  999.0
2003/07/08 14:20,   -0.2,   -0.2,   -0.1,    0.2,   -0.2,    0.2,   -0.1,    0.1,    0.0,    0.0,   -0.1,   -0.1,   -0.1,   -0.2,   -0.1,   -0.4,   -0.4,   -0.3,   -0.2,   -0.2,   -0.2,   -0.0,   -0.1,    0.1,   -0.2,  999.0,  999.0,  999.0,    0.2,   -1.0,   -1.0,  999.0,  999.0,  999.0,  999.0,  999.0,   -0.1,  999.0,  999.0,  999.0,  999.0,  999.0,  999.0,  999.0,  999.0,  999.0,  999.0,  999.0,  999.0,  999.0,  999.0,  999.0,  999.0,  999.0,  999.0,  999.0,  999.0,  999.0,  999.0,  999.0,  999.0,  999.0,  999.0,  999.0,  999.0,  999.0,  999.0,  999.0,  999.0,  999.0
2003/07/08 14:30,   -0.5,   -0.5,   -0.1,    0.1,   -0.1,   -0.2,    0.1,    0.1,    0.2,   -0.0,   -0.3,   -0.3,   -0.3,   -0.3,   -0.2,   -0.5,   -0.6,   -0.6,   -0.6,   -0.5,   -0.6,  999.0,  999.0,  999.0,   -0.1,   -0.2,  999.0,  999.0,  999.0,  999.0,  999.0,  999.0,  999.0,  999.0,  999.0,   -0.1,   -0.0,  999.0,  999.0,  999.0,  999.0,  999.0,  999.0,  999.0,  999.0,  999.0,  999.0,  999.0,  999.0,  999.0,  999.0,  999.0,  999.0,  999.0,  999.0,  999.0,  999.0,  999.0,  999.0,  999.0,  999.0,  999.0,  999.0,  999.0,  999.0,  999.0,  999.0,  999.0,  999.0,  999.0
2003/07/08 14:40,   -0.1,    0.1,    0.2,    0.2,    0.2,    0.9,    0.6,    0.6,    0.3,    0.2,    0.2,    0.4,    0.5,    0.5,    0.0,    0.1,    0.2,    0.1,   -0.1,   -0.0,    0.2,  999.0,  999.0,    0.1,    0.0,    0.0,    0.5,    0.3,  999.0,  999.0,  999.0,  999.0,  999.0,  999.0,   -0.1,   -0.3,  999.0,  999.0,  999.0,   -0.1,   -0.2,  999.0,  999.0,  999.0,  999.0,  999.0,  999.0,    0.2,    0.1,    0.2,  999.0,  999.0,  999.0,  999.0,  999.0,  999.0,  999.0,  999.0,  999.0,  999.0,  999.0,  999.0,  999.0,  999.0,  999.0,  999.0,  999.0,  999.0,  999.0,  999.0
2003/07/08 14:50,   -0.3,    0.2,    0.2,    0.2,   -0.0,    0.2,   -0.1,   -0.2,   -0.3,   -0.4,   -0.3,   -0.4,   -0.3,   -0.3,   -0.1,   -0.2,   -0.3,   -0.2,   -0.3,   -0.0,   -0.0,   -0.5,   -0.8,    0.2,    0.1,    0.1,    0.2,    0.1,   -0.2,  999.0,  999.0,  999.0,  999.0,  999.0,  999.0,   -0.4,  999.0,  999.0,   -0.1,   -0.3,  999.0,  999.0,  999.0,  999.0,  999.0,  999.0,  999.0,    0.3,    0.3,  999.0,  999.0,  999.0,  999.0,  999.0,  999.0,  999.0,  999.0,  999.0,  999.0,  999.0,  999.0,  999.0,  999.0,  999.0,  999.0,  999.0,  999.0,  999.0,  999.0,  999.0
2003/07/08 15:00,   -0.5,   -0.1,    0.2,    0.2,    0.2,    0.3,    0.1,    0.2,    0.1,   -0.2,   -0.3,   -0.4,   -0.3,   -0.1,  999.0,   -0.3,   -0.4,   -0.3,   -0.3,   -0.0,   -0.1,  999.0,  999.0,   -0.4,    0.2,    0.2,    0.2,    0.2,  999.0,  999.0,  999.0,  999.0,  999.0,  999.0,  999.0,  999.0,  999.0,  999.0,    0.3,   -0.0,  999.0,  999.0,  999.0,  999.0,  999.0,  999.0,  999.0,    0.6,    0.7,    0.8,  999.0,  999.0,  999.0,  999.0,  999.0,  999.0,  999.0,  999.0,  999.0,  999.0,  999.0,  999.0,  999.0,  999.0,  999.0,  999.0,  999.0,  999.0,  999.0,  999.0
2003/07/08 15:10,   -0.1,   -0.1,    0.2,    0.3,    0.2,    0.2,   -0.1,   -0.2,   -0.6,   -0.8,   -0.9,   -0.4,   -0.1,   -0.2,   -0.0,   -0.3,   -0.4,   -0.2,   -0.4,   -0.0,   -0.1,   -0.2,  999.0,   -0.2,    0.1,   -0.1,    0.1,   -0.1,  999.0,  999.0,  999.0,  999.0,  999.0,  999.0,  999.0,  999.0,  999.0,  999.0,    0.0,    0.2,  999.0,  999.0,  999.0,  999.0,  999.0,  999.0,  999.0,    0.5,    0.3,    0.4,    0.3,    0.3,    0.3,    0.4,  999.0,    0.2,    0.0,  999.0,  999.0,  999.0,  999.0,  999.0,  999.0,  999.0,  999.0,  999.0,  999.0,  999.0,  999.0,  999.0
2003/07/08 15:20,    0.1,    0.2,    0.4,    0.5,    0.3,    0.3,    0.1,   -0.1,   -0.3,   -0.3,   -0.4,   -0.2,    0.1,   -0.0,   -0.2,   -0.1,   -0.1,    0.1,   -0.1,   -0.1,    0.0,   -0.1,   -0.4,   -0.1,   -0.3,   -0.3,   -0.2,   -0.3,   -0.2,  999.0,  999.0,  999.0,  999.0,  999.0,   -0.2,   -0.1,  999.0,  999.0,    0.0,  999.0,  999.0,  999.0,  999.0,  999.0,  999.0,  999.0,  999.0,    0.2,    0.6,    0.4,    0.5,    0.4,    0.4,    0.4,    0.4,    0.4,    0.3,  999.0,  999.0,  999.0,  999.0,  999.0,  999.0,  999.0,  999.0,  999.0,  999.0,  999.0,  999.0,  999.0
2003/07/08 15:30,    0.2,    0.3,    0.2,    0.4,    0.7,    0.3,    0.3,    0.2,    0.3,    0.0,   -0.3,   -0.1,    0.0,    0.0,   -0.0,    0.1,   -0.1,   -0.2,   -0.1,    0.1,   -0.1,   -0.1,   -0.1,   -0.2,    0.0,   -0.2,   -0.2,   -0.1,  999.0,  999.0,  999.0,  999.0,  999.0,  999.0,    0.4,    0.5,  999.0,    0.3,    0.3,    0.2,  999.0,  999.0,  999.0,  999.0,  999.0,  999.0,    0.4,    0.4,  999.0,    0.3,    0.5,  999.0,    0.5,    0.5,    0.6,    0.7,  999.0,  999.0,  999.0,  999.0,  999.0,  999.0,  999.0,  999.0,  999.0,  999.0,  999.0,  999.0,  999.0,  999.0
2003/07/08 15:40,   -0.0,   -0.3,   -0.1,    0.3,    0.2,    0.3,    0.4,    0.3,    0.0,    0.0,    0.1,    0.3,    0.4,    0.3,    0.2,    0.1,   -0.3,   -0.0,    0.1,    0.0,    0.2,    0.0,   -0.0,   -0.0,   -0.2,   -0.1,   -0.1,  999.0,  999.0,  999.0,  999.0,  999.0,  999.0,    0.4,    0.2,  999.0,    0.2,    0.3,  999.0,  999.0,    0.1,  999.0,  999.0,  999.0,  999.0,  999.0,    0.4,    0.6,  999.0,  999.0,    0.7,    0.8,    0.6,    0.5,    0.4,  999.0,  999.0,  999.0,  999.0,  999.0,  999.0,  999.0,  999.0,  999.0,  999.0,  999.0,  999.0,  999.0,  999.0,    0.8
2003/07/08 15:50,   -0.4,   -0.3,   -0.1,    0.2,    0.1,    0.2,    0.2,    0.2,    0.0,    0.1,    0.1,    0.1,    0.2,   -0.0,   -0.0,   -0.0,   -0.1,   -0.1,   -0.1,   -0.0,   -0.0,    0.1,   -0.1,   -0.1,   -0.1,   -0.0,   -0.1,  999.0,  999.0,  999.0,  999.0,  999.0,  999.0,    0.7,    0.5,  999.0,    0.5,    0.6,    0.7,  999.0,  999.0,  999.0,  999.0,  999.0,  999.0,  999.0,  999.0,    0.8,    0.8,  999.0,  999.0,  999.0,  999.0,  999.0,    0.5,  999.0,  999.0,  999.0,  999.0,  999.0,  999.0,  999.0,  999.0,  999.0,  999.0,  999.0,  999.0,  999.0,  999.0,  999.0
2003/07/08 16:00,   -0.0,    0.1,    0.1,    0.4,    0.7,    0.5,    0.5,    0.3,    0.4,    0.4,    0.2,    0.4,    0.3,    0.2,    0.0,    0.1,    0.1,   -0.0,   -0.1,   -0.2,    0.8,   -0.1,   -0.2,   -0.1,   -0.0,   -0.1,   -0.0,  999.0,  999.0,  999.0,  999.0,  999.0,  999.0,  999.0,  999.0,    0.7,    0.6,    0.6,    1.1,  999.0,  999.0,  999.0,  999.0,  999.0,  999.0,  999.0,  999.0,  999.0,    0.7,  999.0,  999.0,  999.0,  999.0,  999.0,    0.5,    0.6,  999.0,  999.0,  999.0,  999.0,  999.0,  999.0,  999.0,  999.0,  999.0,  999.0,  999.0,  999.0,  999.0,  999.0
2003/07/08 16:10,   -0.6,   -0.6,   -0.5,   -0.1,    0.5,    0.4,    0.4,    0.3,    0.3,    0.3,    0.5,    0.3,    0.4,    0.3,    0.3,    0.1,    0.0,    0.0,   -0.0,    0.0,    0.1,    0.0,   -0.0,    0.1,    0.3,  999.0,    0.0,    0.0,   -0.1,    0.5,  999.0,    0.0,  999.0,  999.0,  999.0,  999.0,    0.2,    0.1,    0.2,  999.0,  999.0,  999.0,  999.0,  999.0,  999.0,  999.0,  999.0,  999.0,  999.0,    0.1,  999.0,  999.0,  999.0,  999.0,    0.7,  999.0,  999.0,  999.0,  999.0,  999.0,  999.0,  999.0,  999.0,  999.0,  999.0,  999.0,  999.0,  999.0,  999.0,  999.0
2003/07/08 16:20,    0.2,   -0.2,   -0.0,    0.2,    0.3,    0.2,    0.1,   -0.1,    0.1,   -0.3,    0.0,    0.1,    0.1,    0.0,    0.1,  999.0,    0.0,    0.1,    0.1,   -0.1,  999.0,   -0.3,   -0.3,  999.0,  999.0,  999.0,   -0.3,   -0.3,   -0.7,   -0.7,    0.0,  999.0,  999.0,  999.0,  999.0,  999.0,  999.0,  999.0,  999.0,  999.0,  999.0,  999.0,  999.0,  999.0,  999.0,  999.0,  999.0,  999.0,  999.0,    0.1,  999.0,  999.0,  999.0,  999.0,  999.0,    0.5,    0.8,  999.0,  999.0,  999.0,  999.0,  999.0,  999.0,  999.0,  999.0,  999.0,  999.0,  999.0,  999.0,  999.0
2003/07/08 16:30,    0.2,    0.3,   -0.4,    0.1,   -0.0,    0.0,   -0.3,   -0.1,   -0.1,    0.1,    0.2,   -0.0,    0.1,    0.0,    0.2,    0.2,   -0.2,    0.1,    0.2,    0.2,    0.1,   -0.0,   -0.0,  999.0,  999.0,    0.2,   -0.0,   -0.2,   -0.2,  999.0,    0.0,   -0.2,  999.0,  999.0,  999.0,  999.0,  999.0,   -0.1,    0.0,   -0.0,  999.0,  999.0,  999.0,  999.0,  999.0,  999.0,  999.0,  999.0,   -0.0,  999.0,    0.0,   -0.0,  999.0,  999.0,    0.0,  999.0,  999.0,  999.0,  999.0,  999.0,  999.0,  999.0,  999.0,  999.0,  999.0,  999.0,  999.0,  999.0,  999.0,  999.0
2003/07/08 16:40,   -0.0,    0.0,    0.3,    0.1,    0.2,    0.2,    0.2,    0.4,    0.4,    0.2,    0.2,    0.2,    0.3,    0.4,    0.4,    0.6,  999.0,  999.0,    0.3,    0.3,    0.2,    0.3,    0.2,    0.1,   -0.2,  999.0,  999.0,    0.1,  999.0,   -0.0,  999.0,  999.0,  999.0,  999.0,   -0.1,   -0.0,  999.0,  999.0,   -0.1,   -0.1,  999.0,  999.0,  999.0,  999.0,  999.0,  999.0,  999.0,  999.0,  999.0,  999.0,   -0.4,   -0.1,  999.0,   -0.1,  999.0,  999.0,  999.0,  999.0,  999.0,  999.0,  999.0,  999.0,  999.0,  999.0,  999.0,  999.0,  999.0,  999.0,  999.0,  999.0
2003/07/08 16:50,    0.1,    0.4,    0.2,    0.3,    0.6,    0.7,    0.4,    0.3,    0.2,    0.1,    0.2,    0.4,    0.3,    0.3,    0.3,    0.5,    0.7,    0.7,    0.5,    0.4,    0.4,    0.2,    0.1,    0.2,    0.3,    0.1,    0.2,    0.3,    0.2,  999.0,  999.0,  999.0,  999.0,  999.0,   -0.0,    0.1,  999.0,  999.0,   -0.2,   -0.0,  999.0,  999.0,  999.0,  999.0,  999.0,  999.0,  999.0,  999.0,  999.0,   -0.2,   -0.1,   -0.2,  999.0,   -0.1,   -0.0,  999.0,  999.0,  999.0,  999.0,  999.0,  999.0,  999.0,  999.0,  999.0,  999.0,  999.0,  999.0,  999.0,  999.0,  999.0
2003/07/08 17:00,   -0.2,    0.1,    0.4,    0.3,    0.5,    0.5,    0.3,    0.1,    0.1,    0.3,    0.3,    0.5,    0.5,    0.5,    0.4,    0.6,    0.4,    0.1,    0.5,    0.2,    0.2,    0.1,    0.4,    0.1,    0.1,    0.0,    0.1,   -0.0,    0.1,    0.2,  999.0,  999.0,  999.0,    0.2,  999.0,   -0.0,  999.0,  999.0,    0.1,  999.0,  999.0,  999.0,  999.0,  999.0,  999.0,  999.0,  999.0,  999.0,  999.0,  999.0,  999.0,    0.0,    0.2,    0.2,  999.0,  999.0,  999.0,  999.0,  999.0,  999.0,  999.0,  999.0,  999.0,  999.0,  999.0,  999.0,  999.0,  999.0,  999.0,  999.0
2003/07/08 17:10,   -0.1,   -0.0,    0.3,    0.3,    0.4,    0.3,    0.2,   -0.1,   -0.1,    0.0,   -0.1,   -0.1,    0.3,    0.3,    0.3,    0.4,    0.3,    0.2,    0.1,    0.2,    0.2,  999.0,    0.1,    0.2,   -0.1,    0.4,    0.2,  999.0,    0.1,    0.1,  999.0,  999.0,  999.0,  999.0,  999.0,  999.0,  999.0,   -0.1,   -0.1,  999.0,  999.0,  999.0,  999.0,  999.0,  999.0,  999.0,  999.0,  999.0,  999.0,  999.0,   -0.2,   -0.1,    0.1,   -0.1,  999.0,  999.0,  999.0,  999.0,  999.0,  999.0,  999.0,  999.0,  999.0,  999.0,  999.0,  999.0,  999.0,  999.0,  999.0,  999.0
2003/07/08 17:20,   -0.4,   -0.1,    0.4,    0.3,    0.8,    0.6,    0.4,    0.3,    0.1,    0.1,    0.3,    0.5,    0.6,    0.5,    0.5,    0.5,    0.5,    0.5,    0.2,    0.1,    0.2,    0.2,    0.3,    0.2,    0.3,    0.2,    0.1,    0.2,   -0.0,  999.0,  999.0,  999.0,    0.0,  999.0,  999.0,  999.0,   -0.3,   -0.5,   -0.5,  999.0,  999.0,  999.0,  999.0,  999.0,  999.0,  999.0,  999.0,  999.0,  999.0,  999.0,   -0.6,   -0.6,   -0.7,  999.0,  999.0,  999.0,  999.0,  999.0,  999.0,  999.0,  999.0,  999.0,  999.0,  999.0,  999.0,  999.0,  999.0,  999.0,  999.0,  999.0
2003/07/08 17:30,   -0.4,   -0.6,   -0.3,    0.2,   -0.4,   -0.1,   -0.0,   -0.0,    0.0,   -0.1,   -0.2,   -0.1,    0.1,    0.4,    0.4,    0.4,    0.3,    0.3,    0.1,    0.1,    0.1,  999.0,  999.0,  999.0,  999.0,  999.0,    0.2,    0.1,    0.1,  999.0,  999.0,    0.1,    0.3,  999.0,  999.0,  999.0,    0.2,    0.2,  999.0,  999.0,  999.0,  999.0,  999.0,  999.0,  999.0,  999.0,  999.0,  999.0,  999.0,  999.0,  999.0,  999.0,   -0.0,  999.0,  999.0,  999.0,  999.0,  999.0,  999.0,  999.0,  999.0,  999.0,  999.0,  999.0,  999.0,  999.0,  999.0,  999.0,  999.0,  999.0
2003/07/08 17:40,   -0.5,  999.0,  999.0,   -0.2,   -0.3,    0.1,   -0.1,   -0.0,    0.0,    0.1,    0.0,    0.1,    0.1,    0.2,    0.0,    0.0,   -0.0,  999.0,    0.1,  999.0,   -0.2,  999.0,    0.1,    0.1,  999.0,    0.4,    0.1,    0.4,  999.0,  999.0,  999.0,  999.0,  999.0,  999.0,  999.0,  999.0,    0.3,    0.4,  999.0,  999.0,  999.0,  999.0,  999.0,  999.0,  999.0,   -0.1,  999.0,  999.0,  999.0,  999.0,   -0.3,  999.0,  999.0,  999.0,  999.0,  999.0,  999.0,   -0.3,  999.0,  999.0,  999.0,  999.0,  999.0,  999.0,  999.0,  999.0,  999.0,  999.0,  999.0,  999.0
2003/07/08 17:50,   -0.0,   -0.3,   -0.1,   -0.2,   -0.2,   -0.1,   -0.1,   -0.3,   -0.3,   -0.5,   -0.5,   -0.3,   -0.4,   -0.4,   -0.3,   -0.4,   -0.4,   -0.2,   -0.5,   -0.3,   -0.3,  999.0,   -0.5,   -0.3,  999.0,  999.0,  999.0,   -0.6,  999.0,  999.0,  999.0,  999.0,    0.4,  999.0,  999.0,  999.0,  999.0,    0.4,  999.0,  999.0,  999.0,  999.0,  999.0,  999.0,    0.2,    0.4,    0.3,  999.0,  999.0,  999.0,  999.0,  999.0,  999.0,  999.0,  999.0,  999.0,  999.0,  999.0,  999.0,  999.0,  999.0,  999.0,  999.0,  999.0,  999.0,  999.0,  999.0,  999.0,  999.0,  999.0
2003/07/08 18:00,    0.2,    0.3,    0.1,   -0.0,   -0.1,   -0.1,   -0.1,   -0.1,   -0.1,   -0.1,   -0.2,   -0.2,   -0.1,   -0.1,   -0.1,    0.0,   -0.0,    0.4,   -0.0,   -0.0,    0.0,  999.0,  999.0,  999.0,  999.0,  999.0,  999.0,    0.4,    0.0,  999.0,  999.0,    0.2,  999.0,  999.0,  999.0,    0.4,    0.5,    0.5,  999.0,  999.0,  999.0,  999.0,  999.0,    0.3,    0.6,    0.6,  999.0,  999.0,  999.0,  999.0,  999.0,  999.0,  999.0,  999.0,  999.0,  999.0,  999.0,  999.0,  999.0,  999.0,  999.0,  999.0,  999.0,  999.0,   -0.0,  999.0,  999.0,  999.0,  999.0,  999.0
2003/07/08 18:10,   -0.1,    0.0,    0.2,    0.2,    0.2,    0.3,   -0.1,   -0.0,    0.2,    0.1,    0.0,    0.1,   -0.0,   -0.0,    0.0,   -0.0,   -0.0,  999.0,   -0.0,    0.2,   -0.2,  999.0,  999.0,    0.4,  999.0,  999.0,  999.0,  999.0,  999.0,  999.0,  999.0,    0.6,  999.0,  999.0,  999.0,    0.5,    0.5,  999.0,  999.0,  999.0,  999.0,  999.0,    0.6,  999.0,    0.7,    0.4,  999.0,  999.0,  999.0,  999.0,  999.0,  999.0,  999.0,  999.0,  999.0,  999.0,  999.0,  999.0,  999.0,  999.0,  999.0,  999.0,  999.0,  999.0,  999.0,  999.0,  999.0,  999.0,  999.0,  999.0
2003/07/08 18:20,   -0.1,    0.1,   -0.0,    0.2,    0.3,    0.3,    0.1,    0.1,   -0.1,   -0.0,   -0.1,   -0.1,   -0.3,   -0.4,   -0.3,   -0.2,   -0.2,   -0.2,    0.1,    0.0,   -0.1,  999.0,  999.0,    0.1,  999.0,  999.0,  999.0,  999.0,  999.0,  999.0,  999.0,  999.0,    0.4,  999.0,  999.0,  999.0,    0.3,    0.4,  999.0,  999.0,  999.0,  999.0,    0.1,    0.2,  999.0,  999.0,  999.0,  999.0,    0.3,  999.0,  999.0,  999.0,  999.0,  999.0,  999.0,  999.0,  999.0,  999.0,  999.0,  999.0,  999.0,  999.0,  999.0,  999.0,  999.0,  999.0,  999.0,  999.0,  999.0,  999.0
2003/07/08 18:30,    0.1,   -0.0,   -0.5,    0.1,   -0.1,   -0.1,   -0.2,   -0.1,   -0.1,   -0.2,   -0.3,   -0.4,   -0.4,   -0.4,   -0.6,   -0.5,   -0.5,   -0.4,   -0.3,  999.0,  999.0,  999.0,  999.0,  999.0,  999.0,  999.0,    0.2,    0.3,  999.0,  999.0,  999.0,  999.0,   -0.2,    0.1,  999.0,  999.0,    0.0,    0.2,  999.0,  999.0,  999.0,  999.0,    0.3,    0.3,    0.3,    0.5,  999.0,  999.0,  999.0,  999.0,  999.0,  999.0,  999.0,  999.0,  999.0,  999.0,  999.0,  999.0,  999.0,  999.0,  999.0,  999.0,  999.0,  999.0,  999.0,  999.0,  999.0,  999.0,  999.0,  999.0
2003/07/08 18:40,    0.2,    0.0,    0.3,   -0.1,    0.1,   -0.2,   -0.1,   -0.0,   -0.0,   -0.1,   -0.1,   -0.1,   -0.1,   -0.1,   -0.1,   -0.1,   -0.1,    0.1,    0.0,  999.0,  999.0,   -0.1,   -0.0,    0.1,  999.0,  999.0,  999.0,    0.2,  999.0,  999.0,  999.0,   -0.7,   -0.5,    0.0,  999.0,   -0.1,    0.0,    0.0,   -0.0,  999.0,  999.0,    0.0,    0.0,    0.3,    0.2,  999.0,  999.0,  999.0,  999.0,  999.0,  999.0,  999.0,  999.0,  999.0,  999.0,  999.0,  999.0,  999.0,  999.0,  999.0,  999.0,  999.0,  999.0,  999.0,  999.0,  999.0,  999.0,  999.0,  999.0,  999.0
2003/07/08 18:50,    0.1,   -0.2,   -0.0,    0.1,   -0.0,   -0.2,   -0.2,    0.0,   -0.0,    0.0,    0.0,    0.0,   -0.0,   -0.0,    0.1,    0.0,    0.1,    0.1,    0.1,   -0.1,  999.0,    0.0,    0.1,  999.0,  999.0,  999.0,   -0.2,   -0.2,  999.0,  999.0,  999.0,   -0.2,   -0.2,  999.0,  999.0,    0.1,    0.1,    0.2,    0.1,  999.0,  999.0,    0.1,  999.0,    0.1,    0.2,    0.2,  999.0,  999.0,  999.0,  999.0,    0.1,  999.0,  999.0,  999.0,  999.0,  999.0,  999.0,  999.0,  999.0,  999.0,  999.0,  999.0,  999.0,  999.0,  999.0,  999.0,  999.0,  999.0,  999.0,  999.0
2003/07/08 19:00,    0.4,   -0.1,    0.0,   -0.0,   -0.3,   -0.2,   -0.1,   -0.0,    0.1,    0.0,    0.0,    0.1,    0.2,    0.2,    0.2,    0.2,    0.3,    0.0,    0.0,    0.3,  999.0,  999.0,   -0.1,  999.0,  999.0,  999.0,  999.0,  999.0,  999.0,  999.0,   -0.1,   -0.0,    0.0,  999.0,  999.0,  999.0,    0.2,    0.1,   -0.1,  999.0,   -0.2,   -0.0,   -0.1,    0.1,   -0.4,  999.0,   -0.1,  999.0,  999.0,  999.0,  999.0,  999.0,  999.0,  999.0,  999.0,  999.0,  999.0,  999.0,  999.0,  999.0,  999.0,  999.0,  999.0,  999.0,  999.0,  999.0,  999.0,  999.0,  999.0,  999.0
2003/07/08 19:10,    0.1,   -0.2,   -0.1,   -0.1,   -0.1,   -0.1,   -0.0,   -0.0,    0.0,    0.1,    0.1,    0.1,    0.1,    0.2,    0.2,    0.2,    0.4,    0.3,    0.3,    0.3,    0.1,    0.3,    0.3,  999.0,  999.0,  999.0,  999.0,  999.0,  999.0,    0.3,   -0.0,   -0.0,   -0.1,    0.0,  999.0,  999.0,    0.0,    0.2,  999.0,  999.0,    0.1,    0.0,   -0.0,  999.0,  999.0,  999.0,  999.0,  999.0,  999.0,  999.0,  999.0,  999.0,  999.0,  999.0,  999.0,  999.0,  999.0,  999.0,  999.0,  999.0,  999.0,  999.0,  999.0,  999.0,  999.0,  999.0,  999.0,  999.0,  999.0,  999.0
2003/07/08 19:20,   -0.0,   -0.1,   -0.1,   -0.2,   -0.2,   -0.2,   -0.1,   -0.0,    0.1,    0.1,    0.2,    0.2,    0.1,    0.1,    0.2,    0.2,    0.2,    0.2,    0.2,    0.1,    0.2,  999.0,    0.0,  999.0,  999.0,  999.0,  999.0,  999.0,  999.0,  999.0,    0.1,    0.1,   -0.0,    0.1,  999.0,  999.0,    0.1,    0.2,    0.3,   -0.0,   -0.0,    0.2,  999.0,  999.0,  999.0,  999.0,  999.0,  999.0,  999.0,  999.0,  999.0,  999.0,  999.0,  999.0,  999.0,  999.0,  999.0,  999.0,  999.0,  999.0,  999.0,  999.0,  999.0,  999.0,  999.0,  999.0,  999.0,  999.0,  999.0,  999.0
2003/07/08 19:30,   -0.2,   -0.1,   -0.0,   -0.0,    0.0,    0.1,   -0.2,   -0.3,   -0.4,   -0.5,   -0.2,   -0.2,   -0.3,   -0.3,   -0.3,   -0.0,    0.2,    0.3,    0.4,    0.4,    0.3,    0.3,  999.0,  999.0,  999.0,  999.0,  999.0,  999.0,  999.0,  999.0,   -0.5,    0.2,    0.1,    0.0,    0.1,    0.2,    0.1,    0.2,    0.1,    0.1,  999.0,  999.0,    0.3,    0.1,    0.0,  999.0,  999.0,   -0.1,   -0.4,   -0.2,   -0.2,  999.0,  999.0,  999.0,  999.0,  999.0,  999.0,  999.0,  999.0,  999.0,  999.0,  999.0,  999.0,  999.0,  999.0,  999.0,  999.0,  999.0,  999.0,  999.0
2003/07/08 19:40,    0.2,    0.2,    0.1,    0.4,    0.1,    0.1,    0.0,   -0.0,   -0.1,    0.2,   -0.1,   -0.1,   -0.1,   -0.2,   -0.1,   -0.1,    0.0,    0.1,    0.1,    0.1,   -0.0,    0.1,   -0.0,  999.0,  999.0,  999.0,  999.0,  999.0,  999.0,  999.0,   -0.0,   -0.2,    0.1,    0.1,    0.0,   -0.0,    0.1,    0.2,    0.2,    0.3,    0.2,    0.1,    0.2,  999.0,  999.0,   -0.2,    0.2,  999.0,  999.0,   -0.2,   -0.0,  999.0,  999.0,  999.0,  999.0,  999.0,  999.0,  999.0,  999.0,  999.0,  999.0,  999.0,  999.0,  999.0,  999.0,  999.0,  999.0,  999.0,  999.0,  999.0
2003/07/08 19:50,    0.1,   -0.2,    0.2,    0.2,   -0.3,   -0.4,    0.0,   -0.1,   -0.1,   -0.2,   -0.1,   -0.2,   -0.0,    0.0,   -0.1,   -0.1,   -0.0,    0.1,    0.1,    0.0,   -0.0,  999.0,  999.0,  999.0,  999.0,  999.0,  999.0,  999.0,  999.0,  999.0,    0.6,  999.0,    0.2,    0.3,    0.3,    0.1,    0.4,    0.1,    0.2,   -0.1,  999.0,  999.0,  999.0,  999.0,  999.0,   -0.0,  999.0,   -0.2,    0.0,   -0.2,   -0.1,  999.0,  999.0,  999.0,  999.0,    0.0,    0.0,  999.0,  999.0,  999.0,  999.0,  999.0,  999.0,  999.0,  999.0,  999.0,  999.0,  999.0,  999.0,  999.0
2003/07/08 20:00,   -0.2,   -0.7,    0.2,    0.1,    0.2,    0.1,   -0.0,    0.1,   -0.2,   -0.2,    0.0,   -0.1,   -0.2,   -0.1,   -0.3,   -0.3,   -0.2,   -0.2,   -0.1,   -0.2,   -0.1,   -0.1,  999.0,  999.0,  999.0,   -0.2,  999.0,  999.0,  999.0,    0.1,  999.0,    0.3,    0.3,    0.2,    0.3,    0.1,    0.2,    0.2,    0.5,    0.2,  999.0,    0.1,  999.0,  999.0,  999.0,  999.0,   -0.2,    0.1,    0.1,   -0.1,   -0.1,    0.2,  999.0,  999.0,  999.0,  999.0,  999.0,  999.0,  999.0,  999.0,  999.0,  999.0,  999.0,  999.0,  999.0,  999.0,  999.0,  999.0,  999.0,  999.0
2003/07/08 20:10,    0.1,    0.0,   -0.1,   -0.1,   -0.1,   -0.1,    0.0,    0.1,   -0.0,   -0.0,   -0.1,    0.2,   -0.6,    0.2,    0.2,    0.1,    0.2,   -0.1,    0.2,    0.2,    0.2,   -0.1,    0.5,  999.0,  999.0,  999.0,  999.0,  999.0,  999.0,  999.0,  999.0,  999.0,    0.1,    0.1,    0.2,    0.1,  999.0,   -0.0,    0.2,    0.2,   -0.0,  999.0,  999.0,  999.0,    0.1,    0.2,  999.0,    0.1,    0.2,    0.2,    0.2,    0.3,  999.0,  999.0,  999.0,    0.3,    0.3,  999.0,  999.0,  999.0,  999.0,  999.0,  999.0,  999.0,  999.0,  999.0,  999.0,  999.0,  999.0,  999.0
2003/07/08 20:20,    0.3,   -0.0,   -0.3,   -0.1,   -0.3,   -0.4,   -0.1,   -0.1,   -0.1,   -0.1,    0.1,   -0.2,   -0.2,   -0.1,    0.1,    0.1,    0.2,    0.0,    0.6,    0.2,    0.2,    0.2,  999.0,    0.3,  999.0,  999.0,  999.0,  999.0,  999.0,  999.0,  999.0,  999.0,    0.2,    0.3,    0.4,  999.0,    0.3,  999.0,    0.5,    0.5,    0.3,    0.3,  999.0,    0.3,    0.2,    0.2,    0.3,    0.2,    0.2,    0.2,    0.3,  999.0,  999.0,    0.3,    0.4,    0.5,    0.5,  999.0,  999.0,  999.0,  999.0,  999.0,  999.0,  999.0,  999.0,  999.0,  999.0,  999.0,  999.0,  999.0
2003/07/08 20:30,   -0.3,    0.3,    0.6,    0.3,    0.3,    0.2,    0.2,    0.4,    0.5,    0.2,    0.6,    0.6,    0.1,    0.2,    0.3,    0.4,    0.4,    0.3,    0.1,    0.0,    0.1,    0.1,    0.2,    0.1,    0.1,  999.0,  999.0,  999.0,  999.0,  999.0,  999.0,    0.3,    0.2,    0.2,    0.3,    0.1,  999.0,  999.0,  999.0,    0.3,    0.2,   -0.1,  999.0,  999.0,   -0.3,   -0.1,    0.1,    0.2,    0.2,    0.4,    0.5,    0.5,  999.0,  999.0,    0.4,    0.5,    0.5,    0.4,    0.4,  999.0,  999.0,  999.0,  999.0,  999.0,  999.0,  999.0,  999.0,  999.0,  999.0,  999.0
2003/07/08 20:40,   -0.0,   -0.0,    0.3,    0.1,   -0.1,    0.1,   -0.1,   -0.0,    0.3,    0.3,    0.2,    0.4,    0.5,    0.5,    0.2,    0.3,    0.3,    0.3,    0.2,    0.2,    0.2,    0.2,   -0.0,    0.0,    0.1,    0.0,  999.0,    0.5,  999.0,  999.0,  999.0,   -0.1,   -0.1,   -0.2,   -0.1,   -0.2,   -0.0,   -0.1,   -0.2,   -0.1,   -0.1,   -0.1,   -0.4,   -0.1,   -0.1,    0.1,    0.2,    0.2,    0.2,    0.3,    0.3,    0.4,    0.2,  999.0,    0.1,    0.4,    0.4,    0.2,    0.1,  999.0,  999.0,  999.0,  999.0,  999.0,  999.0,  999.0,  999.0,  999.0,  999.0,  999.0
2003/07/08 20:50,   -0.2,   -0.5,   -0.1,   -0.1,   -0.2,   -0.0,    0.2,   -0.1,    0.2,    0.0,    0.4,    0.3,    0.6,    0.4,    0.3,    0.4,    0.3,   -0.5,  999.0,   -0.0,   -0.0,   -0.0,    0.0,    0.1,   -0.1,  999.0,    0.2,  999.0,  999.0,  999.0,  999.0,    0.1,    0.1,    0.2,    0.2,    0.3,    0.2,    0.3,    0.2,  999.0,  999.0,    0.0,    0.1,   -0.0,    0.0,    0.2,    0.3,    0.1,    0.2,    0.1,    0.1,    0.1,    0.1,  999.0,  999.0,  999.0,    0.1,    0.3,    0.1,    0.2,  999.0,  999.0,  999.0,  999.0,  999.0,  999.0,  999.0,  999.0,  999.0,  999.0
2003/07/08 21:00,    0.2,    0.3,    0.5,    0.2,    0.2,    0.2,    0.0,    0.1,    0.0,    0.2,    0.2,    0.0,   -0.0,    0.3,    0.3,    0.1,    0.1,    0.2,    0.5,   -0.2,    0.2,    0.1,    0.0,    0.0,    0.0,    0.0,    0.1,   -0.1,   -0.2,  999.0,   -0.0,   -0.0,   -0.0,   -0.0,    0.1,    0.2,   -0.0,    0.3,    0.3,    0.1,    0.1,  999.0,  999.0,  999.0,    0.1,  999.0,   -0.2,   -0.1,   -0.0,   -0.1,    0.0,   -0.0,   -0.2,    0.1,    0.1,    0.3,   -0.0,   -0.0,    0.1,    0.0,  999.0,  999.0,  999.0,  999.0,  999.0,  999.0,  999.0,  999.0,  999.0,   -0.0
2003/07/08 21:10,    0.3,    0.1,    0.3,    0.1,    0.1,    0.1,    0.0,    0.1,   -0.0,    0.0,    0.3,    0.4,    0.1,    0.3,    0.3,    0.4,    0.3,    0.2,    0.3,    0.7,    0.4,    0.3,    0.2,    0.1,    0.1,    0.1,    0.2,  999.0,    0.3,  999.0,    0.2,    0.1,   -0.0,    0.1,    0.3,    0.2,    0.2,    0.4,  999.0,    0.3,  999.0,  999.0,    0.2,    0.3,    0.1,   -0.0,   -0.0,   -0.0,   -0.0,   -0.2,   -0.1,   -0.0,    0.1,    0.2,   -0.1,    0.2,    0.1,    0.2,    0.1,    0.2,  999.0,  999.0,  999.0,  999.0,  999.0,  999.0,  999.0,    0.1,    0.0,   -0.1
2003/07/08 21:20,    0.2,    0.2,    0.1,    0.1,    0.1,    0.0,   -0.1,   -0.2,    0.0,    0.0,    0.0,   -0.4,    0.2,    0.1,    0.1,   -0.1,   -0.1,    0.1,    0.3,    0.4,    0.7,    0.6,    0.3,    0.0,    0.1,    0.1,    0.2,    0.1,    0.3,    0.3,    0.0,    0.2,    0.1,    0.0,    0.1,   -0.1,   -0.0,    0.1,    0.1,    0.1,   -0.2,  999.0,  999.0,  999.0,  999.0,    0.1,    0.1,   -0.2,   -0.2,   -0.0,    0.1,    0.1,    0.1,    0.1,    0.3,    0.2,    0.2,    0.1,    0.3,    0.3,    0.1,  999.0,  999.0,  999.0,  999.0,    0.1,    0.1,    0.1,    0.0,    0.1
2003/07/08 21:30,   -0.2,    0.3,   -0.4,    0.1,   -0.0,   -0.0,   -0.1,    0.0,   -0.0,    0.0,    0.0,   -0.3,   -0.0,    0.1,    0.2,   -0.4,   -0.3,   -0.2,   -0.0,    0.2,    0.1,    0.1,    0.3,    0.1,    0.1,    0.3,    0.1,    0.2,    0.2,    0.1,    0.2,    0.2,    0.1,    0.2,    0.1,    0.0,    0.2,    0.2,    0.1,   -0.1,  999.0,  999.0,  999.0,    0.1,    0.3,    0.1,    0.2,   -0.0,    0.1,    0.2,    0.1,  999.0,    0.2,    0.2,    0.2,    0.3,    0.2,    0.1,    0.1,    0.2,   -0.0,  999.0,  999.0,  999.0,  999.0,  999.0,  999.0,  999.0,  999.0,  999.0
2003/07/08 21:40,   -0.5,   -0.4,   -0.1,    0.2,   -0.3,   -0.2,   -0.2,   -0.1,   -0.0,   -0.2,   -0.3,   -0.4,   -0.5,   -0.1,   -0.1,   -0.0,   -0.1,    0.0,   -0.2,   -0.0,    0.0,    0.1,    0.2,    0.3,    0.1,    0.1,    0.1,    0.2,    0.2,    0.3,    0.2,    0.4,    0.3,    0.3,    0.3,  999.0,    0.3,    0.3,  999.0,  999.0,  999.0,  999.0,    0.2,    0.3,    0.1,    0.1,    0.1,    0.1,    0.1,    0.0,  999.0,  999.0,  999.0,  999.0,    0.4,    0.3,    0.3,    0.3,    0.4,    0.6,  999.0,  999.0,  999.0,  999.0,  999.0,  999.0,  999.0,  999.0,  999.0,  999.0
2003/07/08 21:50,   -0.3,   -0.1,    0.1,    0.0,    0.2,    0.2,    0.1,   -0.0,    0.1,   -0.1,   -0.2,   -0.3,   -0.2,   -0.2,   -0.2,   -0.3,   -0.2,   -0.2,   -0.3,   -0.1,   -0.1,   -0.1,   -0.1,   -0.1,   -0.1,   -0.3,   -0.1,    0.1,    0.2,    0.3,    0.3,  999.0,  999.0,    0.1,    0.2,    0.2,    0.2,    0.2,  999.0,  999.0,  999.0,  999.0,    0.1,    0.1,    0.2,    0.1,    0.1,    0.1,    0.2,  999.0,    0.0,  999.0,  999.0,   -0.1,    0.2,    0.1,    0.3,    0.0,    0.0,   -0.1,    0.1,  999.0,  999.0,  999.0,  999.0,  999.0,  999.0,  999.0,  999.0,  999.0
2003/07/08 22:00,    0.0,    0.1,    0.3,   -0.1,    0.3,    0.1,    0.1,   -0.1,   -0.1,   -0.2,   -0.3,   -0.3,   -0.5,   -0.5,   -0.3,   -0.3,   -0.4,   -0.4,   -0.4,   -0.3,   -0.4,   -0.7,   -0.4,   -0.2,   -0.1,   -0.1,   -0.1,    0.0,    0.1,    0.2,   -0.0,  999.0,    0.3,    0.2,    0.2,    0.1,    0.2,    0.3,    0.2,  999.0,  999.0,  999.0,    0.1,    0.1,    0.1,    0.1,  999.0,    0.3,    0.2,    0.1,  999.0,   -0.1,  999.0,    0.1,    0.2,    0.1,   -0.1,   -0.2,   -0.1,   -0.1,  999.0,  999.0,  999.0,  999.0,  999.0,  999.0,  999.0,  999.0,  999.0,  999.0
2003/07/08 22:10,    0.1,   -0.0,   -0.1,   -0.0,    0.3,    0.1,    0.2,    0.2,    0.2,    0.1,   -0.1,   -0.0,   -0.1,    0.0,   -0.4,   -0.2,   -0.0,    0.1,    0.0,   -0.0,   -0.0,   -0.1,    0.1,   -0.1,    0.2,    0.1,    0.2,    0.4,    0.2,    0.2,    0.1,    0.2,    0.2,    0.2,    0.1,    0.2,    0.2,    0.1,   -0.1,   -0.1,   -0.1,   -0.1,   -0.1,    0.0,    0.2,    0.1,  999.0,  999.0,    0.1,  999.0,    0.2,    0.3,    0.6,    0.1,    0.2,    0.3,    0.2,    0.1,    0.1,  999.0,  999.0,  999.0,  999.0,  999.0,  999.0,  999.0,  999.0,  999.0,  999.0,   -0.1
2003/07/08 22:20,    0.1,    0.0,   -0.3,   -0.1,    0.1,    0.3,    0.1,    0.1,    0.2,    0.1,    0.4,    0.1,    0.1,   -0.1,   -0.2,    0.1,   -0.0,    0.1,    0.2,    0.0,    0.1,    0.2,    0.0,    0.1,    0.1,    0.1,    0.0,    0.0,   -0.1,   -0.1,   -0.0,   -0.0,    0.1,    0.0,    0.0,    0.2,  999.0,   -0.0,   -0.0,   -0.0,    0.0,    0.1,   -0.0,    0.0,    0.1,    0.3,    0.5,  999.0,  999.0,   -0.1,  999.0,  999.0,    0.4,    0.2,    0.2,  999.0,    0.2,    0.1,  999.0,  999.0,  999.0,  999.0,  999.0,  999.0,  999.0,  999.0,  999.0,  999.0,  999.0,   -0.1
2003/07/08 22:30,    0.1,   -0.2,   -0.4,   -0.1,    0.1,    0.1,   -0.1,   -0.1,    0.0,   -0.2,    0.0,   -0.2,   -0.0,   -0.0,   -0.2,   -0.0,   -0.2,   -0.1,   -0.0,    0.1,    0.2,    0.2,    0.4,    0.4,    0.3,    0.2,    0.0,    0.1,   -0.0,    0.0,  999.0,    0.1,    0.1,    0.2,    0.1,    0.0,   -0.0,   -0.1,   -0.0,    0.2,  999.0,  999.0,   -0.1,    0.1,    0.3,    0.1,    0.4,  999.0,  999.0,  999.0,  999.0,   -0.2,   -0.0,    0.1,    0.1,  999.0,    0.1,    0.1,    0.2,  999.0,  999.0,  999.0,  999.0,  999.0,  999.0,  999.0,  999.0,  999.0,    0.4,  999.0
2003/07/08 22:40,   -0.0,   -0.1,   -0.1,   -0.1,    0.1,    0.0,    0.1,   -0.0,    0.1,    0.1,    0.2,    0.0,    0.1,    0.4,    0.3,   -0.0,    0.5,    0.3,  999.0,  999.0,    0.1,    0.0,    0.1,    0.3,  999.0,    0.1,    0.2,  999.0,  999.0,  999.0,    0.3,    0.3,    0.3,    0.2,    0.2,  999.0,  999.0,  999.0,    0.4,    0.4,  999.0,    0.1,   -0.1,    0.3,    0.1,   -0.0,   -0.1,  999.0,   -0.8,  999.0,  999.0,   -0.3,   -0.1,   -0.0,    0.0,  999.0,  999.0,  999.0,  999.0,  999.0,  999.0,  999.0,  999.0,  999.0,  999.0,  999.0,   -0.0,  999.0,  999.0,  999.0
2003/07/08 22:50,   -0.1,   -0.1,   -0.2,   -0.0,    0.1,   -0.1,    0.0,    0.1,    0.2,    0.1,   -0.1,    0.1,    0.1,    0.2,    0.1,    0.1,    0.1,   -0.0,    0.2,    0.1,    0.0,    0.1,   -0.1,   -0.1,  999.0,   -0.2,   -0.2,  999.0,  999.0,  999.0,   -0.1,  999.0,  999.0,    0.1,    0.1,  999.0,   -0.0,  999.0,    0.1,    0.2,    0.2,  999.0,  999.0,  999.0,    0.2,    0.2,    0.1,  999.0,  999.0,  999.0,  999.0,   -0.6,   -0.4,   -0.1,    0.0,    0.2,    0.2,  999.0,  999.0,  999.0,  999.0,  999.0,   -0.2,   -0.3,    0.2,    0.1,    0.6,  999.0,    0.1,    0.3
2003/07/08 23:00,   -0.1,   -0.2,   -0.2,   -0.3,   -0.1,   -0.1,    0.1,    0.1,    0.1,    0.1,    0.0,   -0.0,   -0.1,    0.1,   -0.0,    0.1,    0.0,   -0.2,   -0.0,  999.0,    0.3,  999.0,    0.1,    0.1,    0.1,    0.1,    0.1,    0.1,   -0.2,  999.0,    0.4,    0.1,    0.2,    0.4,    0.1,  999.0,  999.0,  999.0,  999.0,  999.0,  999.0,  999.0,  999.0,  999.0,    0.1,    0.1,   -0.0,  999.0,  999.0,  999.0,  999.0,  999.0,  999.0,  999.0,    0.1,    0.3,    0.3,    0.2,  999.0,  999.0,  999.0,  999.0,  999.0,    0.3,    0.2,    0.2,    0.2,    0.3,    0.3,    0.1
2003/07/08 23:10,    0.1,   -0.0,   -0.2,   -0.2,   -0.0,   -0.3,   -0.7,   -0.8,   -0.9,   -1.0,   -1.1,   -0.7,   -0.8,   -0.8,  999.0,    0.2,   -0.4,   -0.2,   -0.6,  999.0,   -0.3,   -0.2,   -0.8,  999.0,   -3.1,   -2.2,   -2.3,   -2.3,   -1.7,   -3.0,   -2.1,   -2.0,   -1.5,   -2.2,   -2.2,   -2.8,   -2.1,   -2.8,   -2.9,   -2.8,   -2.2,   -2.0,   -2.3,   -1.4,   -1.5,   -0.7,   -1.6,   -1.3,   -1.2,  999.0,   -1.0,   -0.6,   -0.8,   -0.4,   -0.1,    0.0,    0.0,   -0.2,  999.0,  999.0,  999.0,  999.0,  999.0,  999.0,  999.0,  999.0,    0.2,   -0.0,  999.0,  999.0
2003/07/08 23:20,    0.3,   -0.1,   -0.3,   -0.0,   -0.1,   -1.0,   -0.9,   -0.6,   -0.4,   -1.3,   -1.6,   -1.3,   -1.6,   -1.2,   -1.7,   -1.3,   -0.9,   -1.2,   -1.8,   -2.2,   -2.3,   -2.6,   -1.2,   -1.6,   -1.2,   -1.2,   -1.2,   -0.9,   -1.0,   -1.1,   -1.3,   -2.3,   -0.9,   -0.7,   -0.7,   -2.1,   -2.1,   -2.0,   -2.0,   -1.3,   -1.6,   -1.2,   -0.3,   -0.2,   -0.3,   -1.4,  999.0,   -0.3,   -0.3,   -0.8,   -0.8,   -0.8,   -0.5,   -0.2,   -0.2,    0.1,    0.2,    0.3,    0.2,  999.0,    0.1,    0.1,  999.0,  999.0,  999.0,  999.0,    0.2,  999.0,  999.0,  999.0
2003/07/08 23:30,   -0.2,   -0.1,   -0.1,   -0.1,   -0.1,   -0.1,   -0.2,   -0.2,   -0.3,   -0.2,   -0.2,   -0.2,   -0.0,   -0.1,   -0.1,   -0.0,    0.2,    0.1,  999.0,    0.6,    0.2,    0.5,    0.4,    0.2,  999.0,    0.1,    0.0,    0.1,  999.0,  999.0,    0.2,    0.3,  999.0,    0.3,    0.2,  999.0,  999.0,  999.0,  999.0,  999.0,   -0.3,   -0.2,   -0.0,    0.1,  999.0,   -0.2,    0.1,    0.2,    0.3,  999.0,  999.0,  999.0,    0.2,    0.3,   -0.0,    0.1,    0.0,    0.3,  999.0,    0.2,  999.0,  999.0,  999.0,   -0.0,  999.0,  999.0,  999.0,  999.0,  999.0,  999.0
2003/07/08 23:40,    0.0,   -0.1,   -0.0,    0.0,   -0.3,   -0.1,    0.1,    0.2,    0.0,    0.1,    0.1,    0.2,    0.1,    0.0,   -0.0,    0.0,    0.0,    0.1,   -0.2,    0.0,   -0.0,    0.1,   -0.1,   -0.2,   -0.1,   -0.1,   -0.1,   -0.1,   -0.0,    0.0,    0.2,   -0.1,  999.0,    0.4,    0.1,    0.3,  999.0,    0.2,   -0.0,  999.0,   -0.0,   -0.1,    0.1,  999.0,   -0.2,    0.1,  999.0,  999.0,  999.0,  999.0,   -0.1,    0.1,  999.0,  999.0,  999.0,    0.3,    0.2,    0.1,    0.4,  999.0,  999.0,  999.0,    0.1,  999.0,    0.1,   -0.0,  999.0,  999.0,  999.0,  999.0
2003/07/08 23:50,    0.0,   -0.0,   -0.3,   -0.3,   -0.4,   -0.4,   -0.1,   -0.1,   -0.0,    0.0,    0.2,    0.1,    0.0,    0.1,    0.1,    0.1,    0.1,    0.1,   -0.1,   -0.0,    0.2,    0.0,  999.0,   -0.0,    0.0,    0.1,   -0.0,    0.0,   -0.0,    0.0,   -0.0,    0.1,    0.2,  999.0,  999.0,  999.0,  999.0,  999.0,  999.0,   -0.1,    0.1,  999.0,  999.0,  999.0,  999.0,  999.0,  999.0,  999.0,    0.2,  999.0,  999.0,  999.0,  999.0,  999.0,  999.0,  999.0,  999.0,  999.0,  999.0,  999.0,  999.0,  999.0,  999.0,  999.0,    0.3,  999.0,  999.0,  999.0,  999.0,  999.0
